Wetterdaten: aktuell Mittwoch, 17.10.2018 16:54
Datum Zeit Temp. 2m Temp. 5cm Temp. -10cm Temp. 2m alt Feuchte A. Luftdruck Regen Wind Richtung Richtung Taupunkt Windchill Windben
17.10.2018 16:54 17,3 C 16,3 C 13,2 C 19,6 C 68 % 1019,8 hPa 0,0 l/m 0,5 km/h (0 Bft) NW 315 11,3 C 17,3 C 0,0 km/h (0 Bft)
17.10.2018 16:52 17,4 C 16,7 C 13,2 C 19,6 C 68 % 1019,8 hPa 0,0 l/m 0,5 km/h (0 Bft) W-NW 292 11,4 C 17,4 C 3,1 km/h (1 Bft)
17.10.2018 16:50 17,5 C 17,0 C 13,2 C 19,6 C 68 % 1019,8 hPa 0,0 l/m 0,5 km/h (0 Bft) W-NW 292 11,5 C 17,5 C 3,1 km/h (1 Bft)
17.10.2018 16:48 17,5 C 17,3 C 13,2 C 19,7 C 67 % 1019,8 hPa 0,0 l/m 0,2 km/h (0 Bft) W-SW 247 11,3 C 17,5 C 2,5 km/h (1 Bft)
17.10.2018 16:46 17,5 C 17,3 C 13,2 C 19,7 C 67 % 1019,8 hPa 0,0 l/m 0,2 km/h (0 Bft) W-SW 247 11,3 C 17,5 C 2,5 km/h (1 Bft)
17.10.2018 16:44 17,5 C 17,4 C 13,2 C 19,8 C 67 % 1019,8 hPa 0,0 l/m 0,2 km/h (0 Bft) W 270 11,3 C 17,5 C 0,0 km/h (0 Bft)
17.10.2018 16:42 17,6 C 17,4 C 13,2 C 19,9 C 67 % 1019,8 hPa 0,0 l/m 0,3 km/h (0 Bft) W 270 11,4 C 17,6 C 0,0 km/h (0 Bft)
17.10.2018 16:40 17,7 C 17,6 C 13,2 C 19,9 C 66 % 1019,8 hPa 0,0 l/m 0,6 km/h (0 Bft) W 270 11,3 C 17,7 C 0,0 km/h (0 Bft)
17.10.2018 16:38 17,7 C 17,5 C 13,2 C 19,9 C 67 % 1019,8 hPa 0,0 l/m 0,6 km/h (0 Bft) SW 225 11,5 C 17,7 C 0,0 km/h (0 Bft)
17.10.2018 16:36 17,8 C 17,8 C 13,2 C 20,0 C 66 % 1019,8 hPa 0,0 l/m 0,6 km/h (0 Bft) S-SO 157 11,4 C 17,8 C 0,0 km/h (0 Bft)
17.10.2018 16:34 17,9 C 17,7 C 13,2 C 20,1 C 66 % 1019,8 hPa 0,0 l/m 0,6 km/h (0 Bft) S-SO 157 11,5 C 17,9 C 2,5 km/h (1 Bft)
17.10.2018 16:32 18,0 C 17,8 C 13,2 C 20,1 C 65 % 1019,8 hPa 0,0 l/m 1,1 km/h (1 Bft) W-SW 247 11,3 C 18,0 C 4,1 km/h (1 Bft)
17.10.2018 16:30 18,0 C 18,0 C 13,2 C 20,1 C 65 % 1019,8 hPa 0,0 l/m 1,0 km/h (0 Bft) S 180 11,3 C 18,0 C 4,1 km/h (1 Bft)
17.10.2018 16:28 17,9 C 18,1 C 13,2 C 20,0 C 66 % 1019,8 hPa 0,0 l/m 1,0 km/h (0 Bft) SW 225 11,5 C 17,9 C 0,0 km/h (0 Bft)
17.10.2018 16:26 17,9 C 18,1 C 13,2 C 20,0 C 66 % 1020,0 hPa 0,0 l/m 1,0 km/h (0 Bft) SW 225 11,5 C 17,9 C 1,9 km/h (1 Bft)
17.10.2018 16:24 17,9 C 18,2 C 13,2 C 20,0 C 66 % 1020,0 hPa 0,0 l/m 1,3 km/h (1 Bft) SW 225 11,5 C 17,9 C 3,1 km/h (1 Bft)
17.10.2018 16:22 17,9 C 18,3 C 13,2 C 20,0 C 65 % 1020,0 hPa 0,0 l/m 1,1 km/h (1 Bft) S-SW 202 11,2 C 17,9 C 3,1 km/h (1 Bft)
17.10.2018 16:20 18,0 C 18,2 C 13,2 C 20,1 C 65 % 1020,0 hPa 0,0 l/m 1,3 km/h (1 Bft) S 180 11,3 C 18,0 C 2,7 km/h (1 Bft)
17.10.2018 16:18 18,0 C 18,5 C 13,2 C 20,1 C 64 % 1020,0 hPa 0,0 l/m 1,4 km/h (1 Bft) W 270 11,1 C 18,0 C 2,7 km/h (1 Bft)
17.10.2018 16:16 18,1 C 18,4 C 13,2 C 20,1 C 64 % 1020,0 hPa 0,0 l/m 2,1 km/h (1 Bft) S-SO 157 11,2 C 18,1 C 2,9 km/h (1 Bft)
17.10.2018 16:14 18,2 C 18,3 C 13,2 C 20,2 C 64 % 1020,0 hPa 0,0 l/m 2,7 km/h (1 Bft) O 90 11,3 C 18,2 C 2,9 km/h (1 Bft)
17.10.2018 16:12 18,2 C 18,6 C 13,2 C 20,2 C 65 % 1020,0 hPa 0,0 l/m 3,1 km/h (1 Bft) O 90 11,5 C 18,2 C 6,0 km/h (2 Bft)
17.10.2018 16:10 18,2 C 19,0 C 13,2 C 20,3 C 65 % 1020,0 hPa 0,0 l/m 3,4 km/h (1 Bft) O 90 11,5 C 18,2 C 6,0 km/h (2 Bft)
17.10.2018 16:08 18,2 C 19,2 C 13,1 C 20,3 C 64 % 1020,0 hPa 0,0 l/m 3,7 km/h (1 Bft) O-NO 67 11,3 C 18,2 C 4,1 km/h (1 Bft)
17.10.2018 16:06 18,2 C 19,2 C 13,1 C 20,3 C 64 % 1019,9 hPa 0,0 l/m 3,7 km/h (1 Bft) O-NO 67 11,3 C 18,2 C 4,1 km/h (1 Bft)
17.10.2018 16:04 18,3 C 19,1 C 13,1 C 20,5 C 64 % 1019,9 hPa 0,0 l/m 3,2 km/h (1 Bft) W-SW 247 11,4 C 18,3 C 7,0 km/h (2 Bft)
17.10.2018 16:02 18,2 C 19,0 C 13,1 C 20,5 C 64 % 1019,9 hPa 0,0 l/m 3,5 km/h (1 Bft) N 360 11,3 C 18,2 C 7,0 km/h (2 Bft)
17.10.2018 16:00 18,1 C 18,7 C 13,1 C 20,5 C 64 % 1019,9 hPa 0,0 l/m 3,7 km/h (1 Bft) O-NO 67 11,2 C 18,1 C 9,1 km/h (2 Bft)
17.10.2018 15:58 18,0 C 18,7 C 13,1 C 20,5 C 64 % 1019,9 hPa 0,0 l/m 4,2 km/h (1 Bft) NO 45 11,1 C 18,0 C 9,1 km/h (2 Bft)
17.10.2018 15:56 18,0 C 18,8 C 13,1 C 20,5 C 64 % 1019,9 hPa 0,0 l/m 5,5 km/h (1 Bft) S-SW 202 11,1 C 18,0 C 4,2 km/h (1 Bft)
17.10.2018 15:54 18,1 C 18,9 C 13,1 C 20,5 C 64 % 1019,9 hPa 0,0 l/m 6,6 km/h (2 Bft) O-NO 67 11,2 C 18,0 C 6,6 km/h (2 Bft)
17.10.2018 15:52 18,1 C 18,9 C 13,1 C 20,5 C 64 % 1019,9 hPa 0,0 l/m 7,1 km/h (2 Bft) N-NO 22 11,2 C 17,8 C 6,6 km/h (2 Bft)
17.10.2018 15:50 18,1 C 19,1 C 13,1 C 20,5 C 64 % 1019,9 hPa 0,0 l/m 7,9 km/h (2 Bft) O 90 11,2 C 17,4 C 11,0 km/h (2 Bft)
17.10.2018 15:48 18,2 C 19,0 C 13,1 C 20,5 C 64 % 1019,9 hPa 0,0 l/m 6,6 km/h (2 Bft) SO 135 11,3 C 18,1 C 11,0 km/h (2 Bft)
17.10.2018 15:46 18,2 C 19,0 C 13,1 C 20,5 C 64 % 1020,1 hPa 0,0 l/m 6,6 km/h (2 Bft) SO 135 11,3 C 18,1 C 11,0 km/h (2 Bft)
17.10.2018 15:44 18,2 C 19,1 C 13,1 C 20,5 C 63 % 1020,1 hPa 0,0 l/m 6,9 km/h (2 Bft) O-NO 67 11,0 C 18,0 C 12,6 km/h (3 Bft)
17.10.2018 15:42 18,4 C 19,2 C 13,1 C 20,6 C 63 % 1020,1 hPa 0,0 l/m 7,9 km/h (2 Bft) O-SO 112 11,2 C 17,7 C 17,4 km/h (3 Bft)
17.10.2018 15:40 18,5 C 19,4 C 13,1 C 20,5 C 63 % 1020,1 hPa 0,0 l/m 8,4 km/h (2 Bft) O-SO 112 11,3 C 17,6 C 17,4 km/h (3 Bft)
17.10.2018 15:38 18,4 C 19,6 C 13,1 C 20,5 C 64 % 1020,1 hPa 0,0 l/m 7,9 km/h (2 Bft) S-SO 157 11,5 C 17,7 C 8,7 km/h (2 Bft)
17.10.2018 15:36 18,4 C 19,6 C 13,1 C 20,6 C 64 % 1020,1 hPa 0,0 l/m 8,2 km/h (2 Bft) N-NO 22 11,5 C 17,6 C 10,0 km/h (2 Bft)
17.10.2018 15:34 18,3 C 19,7 C 13,1 C 20,6 C 64 % 1020,1 hPa 0,0 l/m 8,9 km/h (2 Bft) O 90 11,4 C 17,2 C 16,6 km/h (3 Bft)
17.10.2018 15:32 18,3 C 19,6 C 13,1 C 20,6 C 64 % 1020,1 hPa 0,0 l/m 8,7 km/h (2 Bft) SO 135 11,4 C 17,3 C 20,9 km/h (4 Bft)
17.10.2018 15:30 18,3 C 19,6 C 13,1 C 20,6 C 64 % 1020,1 hPa 0,0 l/m 9,0 km/h (2 Bft) NO 45 11,4 C 17,1 C 20,9 km/h (4 Bft)
17.10.2018 15:28 18,3 C 19,6 C 13,1 C 20,6 C 64 % 1020,1 hPa 0,0 l/m 10,6 km/h (2 Bft) NO 45 11,4 C 16,5 C 4,6 km/h (1 Bft)
17.10.2018 15:26 18,3 C 19,6 C 13,1 C 20,6 C 64 % 1019,9 hPa 0,0 l/m 10,6 km/h (2 Bft) NO 45 11,4 C 16,5 C 17,8 km/h (3 Bft)
17.10.2018 15:24 18,3 C 19,7 C 13,1 C 20,6 C 64 % 1019,9 hPa 0,0 l/m 10,8 km/h (2 Bft) O-NO 67 11,4 C 16,5 C 26,8 km/h (4 Bft)
17.10.2018 15:22 18,3 C 19,8 C 13,1 C 20,6 C 64 % 1019,9 hPa 0,0 l/m 9,7 km/h (2 Bft) O 90 11,4 C 16,9 C 26,8 km/h (4 Bft)
17.10.2018 15:20 18,2 C 19,7 C 13,1 C 20,6 C 64 % 1019,9 hPa 0,0 l/m 9,0 km/h (2 Bft) O 90 11,3 C 17,0 C 15,1 km/h (3 Bft)
17.10.2018 15:18 18,3 C 19,8 C 13,1 C 20,6 C 64 % 1019,9 hPa 0,0 l/m 8,9 km/h (2 Bft) O 90 11,4 C 17,2 C 17,6 km/h (3 Bft)
17.10.2018 15:16 18,2 C 19,9 C 13,0 C 20,6 C 65 % 1019,9 hPa 0,0 l/m 9,2 km/h (2 Bft) O-NO 67 11,5 C 17,0 C 17,6 km/h (3 Bft)
17.10.2018 15:14 18,2 C 19,9 C 13,0 C 20,6 C 64 % 1019,9 hPa 0,0 l/m 9,5 km/h (2 Bft) O 90 11,3 C 16,8 C 8,3 km/h (2 Bft)
17.10.2018 15:12 18,2 C 19,9 C 13,0 C 20,6 C 64 % 1019,9 hPa 0,0 l/m 10,0 km/h (2 Bft) S-SO 157 11,3 C 16,7 C 9,7 km/h (2 Bft)
17.10.2018 15:10 18,1 C 19,9 C 13,0 C 20,7 C 64 % 1019,9 hPa 0,0 l/m 10,3 km/h (2 Bft) SW 225 11,2 C 16,4 C 19,5 km/h (3 Bft)
17.10.2018 15:08 18,1 C 20,2 C 13,0 C 20,7 C 64 % 1019,9 hPa 0,0 l/m 10,3 km/h (2 Bft) N-NO 22 11,2 C 16,4 C 19,5 km/h (3 Bft)
17.10.2018 15:06 18,1 C 20,2 C 13,0 C 20,7 C 64 % 1020,1 hPa 0,0 l/m 10,3 km/h (2 Bft) N-NO 22 11,2 C 16,4 C 19,5 km/h (3 Bft)
17.10.2018 15:04 18,1 C 20,2 C 13,0 C 20,7 C 64 % 1020,1 hPa 0,0 l/m 9,8 km/h (2 Bft) O 90 11,2 C 16,6 C 18,7 km/h (3 Bft)
17.10.2018 15:02 18,1 C 20,3 C 13,0 C 20,7 C 64 % 1020,1 hPa 0,0 l/m 10,1 km/h (2 Bft) N-NO 22 11,2 C 16,5 C 22,4 km/h (4 Bft)
17.10.2018 15:00 18,1 C 20,5 C 13,0 C 20,7 C 64 % 1020,1 hPa 0,0 l/m 11,4 km/h (2 Bft) NO 45 11,2 C 16,0 C 22,4 km/h (4 Bft)
17.10.2018 14:58 18,2 C 20,8 C 13,0 C 20,6 C 64 % 1020,1 hPa 0,0 l/m 11,1 km/h (2 Bft) O 90 11,3 C 16,3 C 13,9 km/h (3 Bft)
17.10.2018 14:56 18,2 C 20,9 C 13,0 C 20,6 C 64 % 1020,1 hPa 0,0 l/m 10,8 km/h (2 Bft) O 90 11,3 C 16,4 C 21,8 km/h (4 Bft)
17.10.2018 14:54 18,1 C 21,2 C 13,0 C 20,7 C 64 % 1020,1 hPa 0,0 l/m 11,4 km/h (2 Bft) NO 45 11,2 C 16,0 C 21,8 km/h (4 Bft)
17.10.2018 14:52 18,1 C 21,0 C 13,0 C 20,7 C 64 % 1020,1 hPa 0,0 l/m 10,6 km/h (2 Bft) NO 45 11,2 C 16,3 C 20,1 km/h (4 Bft)
17.10.2018 14:50 18,1 C 21,5 C 13,0 C 20,7 C 64 % 1020,1 hPa 0,0 l/m 9,5 km/h (2 Bft) O 90 11,2 C 16,7 C 20,1 km/h (4 Bft)
17.10.2018 14:48 18,2 C 21,5 C 13,0 C 20,7 C 64 % 1020,1 hPa 0,0 l/m 11,3 km/h (2 Bft) O 90 11,3 C 16,2 C 14,9 km/h (3 Bft)
17.10.2018 14:46 18,2 C 21,5 C 13,0 C 20,7 C 64 % 1020,2 hPa 0,0 l/m 11,3 km/h (2 Bft) O 90 11,3 C 16,2 C 29,7 km/h (5 Bft)
17.10.2018 14:44 18,1 C 21,2 C 13,0 C 20,7 C 64 % 1020,2 hPa 0,0 l/m 10,8 km/h (2 Bft) NO 45 11,2 C 16,3 C 16,0 km/h (3 Bft)
17.10.2018 14:42 18,1 C 21,1 C 13,0 C 20,7 C 64 % 1020,2 hPa 0,0 l/m 11,3 km/h (2 Bft) O-SO 112 11,2 C 16,1 C 11,6 km/h (2 Bft)
17.10.2018 14:40 18,1 C 21,2 C 13,0 C 20,6 C 64 % 1020,2 hPa 0,0 l/m 11,6 km/h (2 Bft) O-SO 112 11,2 C 16,0 C 20,5 km/h (4 Bft)
17.10.2018 14:38 18,2 C 21,2 C 13,0 C 20,6 C 64 % 1020,2 hPa 0,0 l/m 12,2 km/h (2 Bft) N-NO 22 11,3 C 15,9 C 20,5 km/h (4 Bft)
17.10.2018 14:36 18,1 C 21,2 C 13,0 C 20,6 C 64 % 1020,2 hPa 0,0 l/m 11,7 km/h (2 Bft) O-SO 112 11,2 C 15,9 C 20,3 km/h (4 Bft)
17.10.2018 14:34 18,1 C 21,6 C 13,0 C 20,5 C 64 % 1020,2 hPa 0,0 l/m 11,6 km/h (2 Bft) O 90 11,2 C 16,0 C 20,3 km/h (4 Bft)
17.10.2018 14:32 18,1 C 21,4 C 12,9 C 20,5 C 64 % 1020,2 hPa 0,0 l/m 12,6 km/h (3 Bft) O 90 11,2 C 15,6 C 23,9 km/h (4 Bft)
17.10.2018 14:30 18,0 C 21,5 C 12,9 C 20,5 C 65 % 1020,2 hPa 0,0 l/m 12,2 km/h (2 Bft) S 180 11,3 C 15,7 C 23,9 km/h (4 Bft)
17.10.2018 14:28 18,0 C 21,5 C 12,9 C 20,5 C 63 % 1020,2 hPa 0,0 l/m 11,7 km/h (2 Bft) O-SO 112 10,8 C 15,8 C 23,6 km/h (4 Bft)
17.10.2018 14:26 18,0 C 21,5 C 12,9 C 20,5 C 63 % 1020,4 hPa 0,0 l/m 11,7 km/h (2 Bft) O-SO 112 10,8 C 15,8 C 23,6 km/h (4 Bft)
17.10.2018 14:24 18,1 C 21,6 C 12,9 C 20,5 C 64 % 1020,4 hPa 0,0 l/m 11,3 km/h (2 Bft) O 90 11,2 C 16,1 C 21,8 km/h (4 Bft)
17.10.2018 14:22 18,1 C 21,8 C 12,9 C 20,5 C 64 % 1020,4 hPa 0,0 l/m 11,1 km/h (2 Bft) O-NO 67 11,2 C 16,1 C 21,8 km/h (4 Bft)
17.10.2018 14:20 18,0 C 21,8 C 12,9 C 20,5 C 64 % 1020,4 hPa 0,0 l/m 11,3 km/h (2 Bft) S-SO 157 11,1 C 16,0 C 19,5 km/h (3 Bft)
17.10.2018 14:18 18,0 C 21,6 C 12,9 C 20,5 C 64 % 1020,4 hPa 0,0 l/m 12,2 km/h (2 Bft) O 90 11,1 C 15,7 C 19,5 km/h (3 Bft)
17.10.2018 14:16 17,9 C 21,6 C 12,9 C 20,4 C 64 % 1020,4 hPa 0,0 l/m 11,3 km/h (2 Bft) S-SO 157 11,0 C 15,8 C 15,3 km/h (3 Bft)
17.10.2018 14:14 17,9 C 21,6 C 12,9 C 20,5 C 64 % 1020,4 hPa 0,0 l/m 11,6 km/h (2 Bft) O-SO 112 11,0 C 15,7 C 15,4 km/h (3 Bft)
17.10.2018 14:12 17,8 C 21,6 C 13,0 C 20,5 C 64 % 1020,4 hPa 0,0 l/m 12,1 km/h (2 Bft) O 90 10,9 C 15,5 C 15,4 km/h (3 Bft)
17.10.2018 14:10 17,9 C 21,8 C 13,0 C 20,3 C 64 % 1020,4 hPa 0,0 l/m 12,2 km/h (2 Bft) SO 135 11,0 C 15,5 C 18,3 km/h (3 Bft)
17.10.2018 14:08 17,9 C 22,1 C 13,0 C 20,3 C 65 % 1020,4 hPa 0,0 l/m 13,4 km/h (3 Bft) N-NO 22 11,2 C 15,2 C 18,3 km/h (3 Bft)
17.10.2018 14:06 17,9 C 22,1 C 13,0 C 20,4 C 65 % 1020,5 hPa 0,0 l/m 13,4 km/h (3 Bft) N-NO 22 11,2 C 15,2 C 28,4 km/h (4 Bft)
17.10.2018 14:04 18,0 C 21,9 C 13,0 C 20,4 C 64 % 1020,5 hPa 0,0 l/m 12,9 km/h (3 Bft) O 90 11,1 C 15,4 C 22,8 km/h (4 Bft)
17.10.2018 14:02 18,0 C 22,2 C 13,0 C 20,4 C 64 % 1020,5 hPa 0,0 l/m 12,1 km/h (2 Bft) O 90 11,1 C 15,7 C 22,8 km/h (4 Bft)
17.10.2018 14:00 17,9 C 22,2 C 12,9 C 20,4 C 65 % 1020,5 hPa 0,0 l/m 11,7 km/h (2 Bft) O-SO 112 11,2 C 15,7 C 22,0 km/h (4 Bft)
17.10.2018 13:58 17,9 C 21,9 C 12,9 C 20,4 C 65 % 1020,5 hPa 0,0 l/m 11,4 km/h (2 Bft) O-NO 67 11,2 C 15,8 C 22,0 km/h (4 Bft)
17.10.2018 13:56 17,9 C 21,9 C 12,9 C 20,4 C 66 % 1020,5 hPa 0,0 l/m 10,3 km/h (2 Bft) O-SO 112 11,5 C 16,2 C 23,0 km/h (4 Bft)
17.10.2018 13:54 17,8 C 22,0 C 12,9 C 20,3 C 66 % 1020,5 hPa 0,0 l/m 10,5 km/h (2 Bft) NO 45 11,4 C 16,0 C 23,0 km/h (4 Bft)
17.10.2018 13:52 17,7 C 22,2 C 12,9 C 20,2 C 66 % 1020,5 hPa 0,0 l/m 11,6 km/h (2 Bft) S-SO 157 11,3 C 15,5 C 22,0 km/h (4 Bft)
17.10.2018 13:50 17,6 C 22,2 C 12,9 C 20,2 C 66 % 1020,5 hPa 0,0 l/m 11,9 km/h (2 Bft) N 360 11,2 C 15,3 C 22,0 km/h (4 Bft)
17.10.2018 13:48 17,7 C 22,0 C 12,9 C 20,3 C 65 % 1020,5 hPa 0,0 l/m 12,4 km/h (3 Bft) O-SO 112 11,0 C 15,2 C 12,4 km/h (3 Bft)
17.10.2018 13:46 17,7 C 22,0 C 12,9 C 20,2 C 65 % 1020,7 hPa 0,0 l/m 12,4 km/h (3 Bft) O-SO 112 11,0 C 15,2 C 16,8 km/h (3 Bft)
17.10.2018 13:44 17,8 C 22,4 C 12,9 C 20,2 C 65 % 1020,7 hPa 0,0 l/m 12,7 km/h (3 Bft) O 90 11,1 C 15,3 C 22,6 km/h (4 Bft)
17.10.2018 13:42 17,7 C 22,8 C 12,9 C 20,2 C 65 % 1020,7 hPa 0,0 l/m 12,1 km/h (2 Bft) O-NO 67 11,0 C 15,3 C 22,6 km/h (4 Bft)
17.10.2018 13:40 17,8 C 22,8 C 12,9 C 20,2 C 65 % 1020,7 hPa 0,0 l/m 12,6 km/h (3 Bft) S-SW 202 11,1 C 15,3 C 19,3 km/h (3 Bft)
17.10.2018 13:38 17,7 C 22,3 C 12,9 C 20,2 C 65 % 1020,7 hPa 0,0 l/m 12,6 km/h (3 Bft) O-NO 67 11,0 C 15,2 C 23,2 km/h (4 Bft)
17.10.2018 13:36 17,7 C 21,9 C 12,9 C 20,2 C 65 % 1020,7 hPa 0,0 l/m 12,6 km/h (3 Bft) S-SO 157 11,0 C 15,2 C 23,6 km/h (4 Bft)
17.10.2018 13:34 17,7 C 21,9 C 12,9 C 20,2 C 64 % 1020,7 hPa 0,0 l/m 12,7 km/h (3 Bft) O 90 10,8 C 15,2 C 23,6 km/h (4 Bft)
17.10.2018 13:32 17,7 C 22,2 C 12,9 C 20,1 C 64 % 1020,7 hPa 0,0 l/m 13,0 km/h (3 Bft) NO 45 10,8 C 15,1 C 18,7 km/h (3 Bft)
17.10.2018 13:30 17,8 C 22,3 C 12,9 C 20,1 C 63 % 1020,7 hPa 0,0 l/m 13,2 km/h (3 Bft) O-SO 112 10,7 C 15,1 C 22,6 km/h (4 Bft)
17.10.2018 13:28 17,8 C 22,8 C 12,9 C 20,0 C 63 % 1020,7 hPa 0,0 l/m 12,6 km/h (3 Bft) O-SO 112 10,7 C 15,3 C 22,6 km/h (4 Bft)
17.10.2018 13:26 17,8 C 22,8 C 12,9 C 20,0 C 63 % 1020,6 hPa 0,0 l/m 12,6 km/h (3 Bft) O-SO 112 10,7 C 15,3 C 24,7 km/h (4 Bft)
17.10.2018 13:24 18,0 C 23,2 C 12,9 C 20,0 C 63 % 1020,6 hPa 0,0 l/m 12,9 km/h (3 Bft) N-NO 22 10,8 C 15,4 C 20,7 km/h (4 Bft)
17.10.2018 13:22 17,9 C 22,7 C 12,9 C 20,0 C 63 % 1020,6 hPa 0,0 l/m 12,4 km/h (3 Bft) S-SO 157 10,8 C 15,5 C 21,2 km/h (4 Bft)
17.10.2018 13:20 17,8 C 22,5 C 12,9 C 20,0 C 63 % 1020,6 hPa 0,0 l/m 11,9 km/h (2 Bft) NO 45 10,7 C 15,5 C 21,2 km/h (4 Bft)
17.10.2018 13:18 17,9 C 22,4 C 12,9 C 20,1 C 63 % 1020,6 hPa 0,0 l/m 11,4 km/h (2 Bft) SO 135 10,8 C 15,8 C 18,2 km/h (3 Bft)
17.10.2018 13:16 17,7 C 22,9 C 12,9 C 20,1 C 63 % 1020,6 hPa 0,0 l/m 11,3 km/h (2 Bft) SO 135 10,6 C 15,6 C 20,5 km/h (4 Bft)
17.10.2018 13:14 17,7 C 22,9 C 12,9 C 20,0 C 62 % 1020,6 hPa 0,0 l/m 10,3 km/h (2 Bft) O-SO 112 10,3 C 16,0 C 20,5 km/h (4 Bft)
17.10.2018 13:12 17,7 C 22,8 C 12,9 C 20,0 C 62 % 1020,6 hPa 0,0 l/m 9,7 km/h (2 Bft) O 90 10,3 C 16,2 C 19,5 km/h (3 Bft)
17.10.2018 13:10 17,7 C 22,3 C 12,9 C 20,0 C 62 % 1020,6 hPa 0,0 l/m 9,7 km/h (2 Bft) S-SO 157 10,3 C 16,2 C 18,9 km/h (3 Bft)
17.10.2018 13:08 18,1 C 22,4 C 12,9 C 20,0 C 62 % 1020,6 hPa 0,0 l/m 8,9 km/h (2 Bft) O 90 10,7 C 17,0 C 11,0 km/h (2 Bft)
17.10.2018 13:06 18,1 C 22,4 C 12,9 C 19,9 C 62 % 1020,6 hPa 0,0 l/m 8,9 km/h (2 Bft) O 90 10,7 C 17,0 C 13,5 km/h (3 Bft)
17.10.2018 13:04 17,9 C 22,0 C 12,9 C 19,9 C 62 % 1020,6 hPa 0,0 l/m 10,0 km/h (2 Bft) O-NO 67 10,5 C 16,3 C 15,4 km/h (3 Bft)
17.10.2018 13:02 17,9 C 22,1 C 12,9 C 19,8 C 61 % 1020,6 hPa 0,0 l/m 9,8 km/h (2 Bft) O 90 10,3 C 16,4 C 15,4 km/h (3 Bft)
17.10.2018 13:00 17,9 C 22,6 C 12,9 C 19,8 C 63 % 1020,6 hPa 0,0 l/m 10,3 km/h (2 Bft) O 90 10,8 C 16,2 C 14,7 km/h (3 Bft)
17.10.2018 12:59 17,9 C 22,6 C 12,9 C 19,8 C 63 % 1020,6 hPa 0,0 l/m 10,3 km/h (2 Bft) O 90 10,8 C 16,2 C 14,7 km/h (3 Bft)
17.10.2018 12:56 17,7 C 21,8 C 12,9 C 19,6 C 60 % 1020,6 hPa 0,0 l/m 10,8 km/h (2 Bft) O-SO 112 9,8 C 15,8 C 15,4 km/h (3 Bft)
17.10.2018 12:54 17,7 C 21,5 C 12,9 C 19,6 C 61 % 1020,6 hPa 0,0 l/m 10,6 km/h (2 Bft) O 90 10,1 C 15,9 C 15,4 km/h (3 Bft)
17.10.2018 12:52 17,6 C 21,7 C 12,9 C 19,6 C 61 % 1020,6 hPa 0,0 l/m 10,8 km/h (2 Bft) O-SO 112 10,0 C 15,7 C 22,6 km/h (4 Bft)
17.10.2018 12:50 17,6 C 21,6 C 12,9 C 19,5 C 61 % 1020,6 hPa 0,0 l/m 10,5 km/h (2 Bft) O-NO 67 10,0 C 15,8 C 22,6 km/h (4 Bft)
17.10.2018 12:48 17,6 C 21,6 C 12,9 C 19,5 C 61 % 1020,6 hPa 0,0 l/m 9,7 km/h (2 Bft) S-SO 157 10,0 C 16,1 C 14,5 km/h (3 Bft)
17.10.2018 12:46 17,6 C 21,6 C 12,9 C 19,5 C 61 % 1021,2 hPa 0,0 l/m 9,7 km/h (2 Bft) S-SO 157 10,0 C 16,1 C 14,5 km/h (3 Bft)
17.10.2018 12:44 17,4 C 22,7 C 12,9 C 19,4 C 62 % 1021,2 hPa 0,0 l/m 9,8 km/h (2 Bft) S-SO 157 10,0 C 15,8 C 14,9 km/h (3 Bft)
17.10.2018 12:42 17,4 C 23,1 C 12,9 C 19,4 C 62 % 1021,2 hPa 0,0 l/m 9,2 km/h (2 Bft) O-SO 112 10,0 C 16,1 C 14,9 km/h (3 Bft)
17.10.2018 12:40 17,2 C 24,1 C 12,9 C 19,4 C 62 % 1021,2 hPa 0,0 l/m 8,9 km/h (2 Bft) O-SO 112 9,9 C 16,0 C 17,0 km/h (3 Bft)
17.10.2018 12:38 17,1 C 23,8 C 12,9 C 19,4 C 62 % 1021,2 hPa 0,0 l/m 9,0 km/h (2 Bft) O-SO 112 9,8 C 15,9 C 17,0 km/h (3 Bft)
17.10.2018 12:36 17,1 C 24,1 C 12,9 C 19,2 C 62 % 1021,2 hPa 0,0 l/m 8,5 km/h (2 Bft) S-SO 157 9,8 C 16,1 C 22,6 km/h (4 Bft)
17.10.2018 12:34 17,1 C 24,6 C 12,9 C 19,2 C 62 % 1021,2 hPa 0,0 l/m 9,2 km/h (2 Bft) O 90 9,8 C 15,8 C 13,1 km/h (3 Bft)
17.10.2018 12:32 17,1 C 24,1 C 12,9 C 19,1 C 61 % 1021,2 hPa 0,0 l/m 7,9 km/h (2 Bft) O 90 9,5 C 16,4 C 11,6 km/h (2 Bft)
17.10.2018 12:30 17,2 C 24,2 C 12,9 C 19,1 C 60 % 1021,2 hPa 0,0 l/m 8,0 km/h (2 Bft) O-SO 112 9,4 C 16,4 C 15,6 km/h (3 Bft)
17.10.2018 12:28 17,0 C 24,3 C 12,9 C 19,0 C 61 % 1021,2 hPa 0,0 l/m 6,6 km/h (2 Bft) S-SO 157 9,4 C 16,9 C 15,6 km/h (3 Bft)
17.10.2018 12:26 17,0 C 24,3 C 12,8 C 18,9 C 61 % 1021,6 hPa 0,0 l/m 6,6 km/h (2 Bft) S-SO 157 9,4 C 16,9 C 16,8 km/h (3 Bft)
17.10.2018 12:24 17,0 C 24,2 C 12,8 C 18,9 C 61 % 1021,6 hPa 0,0 l/m 5,6 km/h (1 Bft) S-SO 157 9,4 C 17,0 C 14,3 km/h (3 Bft)
17.10.2018 12:22 17,0 C 23,1 C 12,8 C 18,8 C 61 % 1021,6 hPa 0,0 l/m 5,6 km/h (1 Bft) S-SO 157 9,4 C 17,0 C 12,0 km/h (2 Bft)
17.10.2018 12:20 17,0 C 24,1 C 12,8 C 18,6 C 61 % 1021,6 hPa 0,0 l/m 5,1 km/h (1 Bft) S 180 9,4 C 17,0 C 12,0 km/h (2 Bft)
17.10.2018 12:19 17,0 C 24,1 C 12,8 C 18,6 C 61 % 1021,6 hPa 0,0 l/m 5,1 km/h (1 Bft) S 180 9,4 C 17,0 C 12,0 km/h (2 Bft)
17.10.2018 12:16 17,0 C 23,9 C 12,7 C 18,4 C 62 % 1021,6 hPa 0,0 l/m 5,1 km/h (1 Bft) S 180 9,7 C 17,0 C 10,6 km/h (2 Bft)
17.10.2018 12:14 16,7 C 23,4 C 12,7 C 18,3 C 64 % 1021,6 hPa 0,0 l/m 5,1 km/h (1 Bft) S 180 9,9 C 16,7 C 10,6 km/h (2 Bft)
17.10.2018 12:12 16,6 C 23,1 C 12,7 C 18,2 C 63 % 1021,6 hPa 0,0 l/m 4,5 km/h (1 Bft) O-SO 112 9,5 C 16,6 C 10,6 km/h (2 Bft)
17.10.2018 12:10 16,5 C 24,8 C 12,6 C 17,7 C 65 % 1021,6 hPa 0,0 l/m 4,5 km/h (1 Bft) S 180 9,9 C 16,5 C 2,3 km/h (1 Bft)
17.10.2018 12:08 16,5 C 24,8 C 12,6 C 17,7 C 65 % 1021,6 hPa 0,0 l/m 4,5 km/h (1 Bft) S 180 9,9 C 16,5 C 2,3 km/h (1 Bft)
17.10.2018 12:06 16,5 C 24,8 C 12,6 C 17,7 C 65 % 1021,7 hPa 0,0 l/m 4,5 km/h (1 Bft) S 180 9,9 C 16,5 C 2,3 km/h (1 Bft)
17.10.2018 12:04 16,5 C 24,8 C 12,6 C 17,7 C 65 % 1021,7 hPa 0,0 l/m 4,5 km/h (1 Bft) S 180 9,9 C 16,5 C 2,3 km/h (1 Bft)
17.10.2018 12:02 16,5 C 24,8 C 12,6 C 17,7 C 65 % 1021,7 hPa 0,0 l/m 4,5 km/h (1 Bft) S 180 9,9 C 16,5 C 5,0 km/h (1 Bft)
17.10.2018 12:00 16,3 C 24,5 C 12,6 C 17,5 C 66 % 1021,7 hPa 0,0 l/m 4,8 km/h (1 Bft) S-SO 157 9,9 C 16,3 C 5,0 km/h (1 Bft)
17.10.2018 11:59 16,3 C 24,5 C 12,6 C 17,5 C 66 % 1021,7 hPa 0,0 l/m 4,8 km/h (1 Bft) S-SO 157 9,9 C 16,3 C 5,0 km/h (1 Bft)
17.10.2018 11:56 15,9 C 22,9 C 12,5 C 17,3 C 68 % 1021,7 hPa 0,0 l/m 5,1 km/h (1 Bft) S 180 10,0 C 15,9 C 9,1 km/h (2 Bft)
17.10.2018 11:54 15,6 C 22,9 C 12,5 C 17,2 C 68 % 1021,7 hPa 0,0 l/m 5,6 km/h (1 Bft) S 180 9,7 C 15,6 C 12,4 km/h (3 Bft)
17.10.2018 11:52 15,5 C 21,6 C 12,4 C 17,1 C 67 % 1021,7 hPa 0,0 l/m 5,1 km/h (1 Bft) S 180 9,4 C 15,5 C 12,4 km/h (3 Bft)
17.10.2018 11:50 15,4 C 20,5 C 12,4 C 17,1 C 68 % 1021,7 hPa 0,0 l/m 4,5 km/h (1 Bft) S-SW 202 9,5 C 15,4 C 9,8 km/h (2 Bft)
17.10.2018 11:49 15,4 C 20,5 C 12,4 C 17,1 C 68 % 1021,7 hPa 0,0 l/m 4,5 km/h (1 Bft) S-SW 202 9,5 C 15,4 C 9,8 km/h (2 Bft)
17.10.2018 11:46 15,2 C 20,8 C 12,3 C 16,7 C 68 % 1021,6 hPa 0,0 l/m 5,1 km/h (1 Bft) S 180 9,3 C 15,2 C 9,5 km/h (2 Bft)
17.10.2018 11:44 15,3 C 21,4 C 12,3 C 16,7 C 68 % 1021,6 hPa 0,0 l/m 5,0 km/h (1 Bft) S 180 9,4 C 15,3 C 11,8 km/h (2 Bft)
17.10.2018 11:42 15,3 C 21,9 C 12,2 C 16,5 C 68 % 1021,6 hPa 0,0 l/m 4,5 km/h (1 Bft) S-SO 157 9,4 C 15,3 C 11,8 km/h (2 Bft)
17.10.2018 11:40 15,2 C 21,9 C 12,2 C 16,5 C 67 % 1021,6 hPa 0,0 l/m 4,8 km/h (1 Bft) S-SO 157 9,1 C 15,2 C 8,7 km/h (2 Bft)
17.10.2018 11:38 15,0 C 21,5 C 12,2 C 16,4 C 67 % 1021,6 hPa 0,0 l/m 5,1 km/h (1 Bft) S 180 8,9 C 15,0 C 12,6 km/h (3 Bft)
17.10.2018 11:36 14,9 C 21,1 C 12,1 C 16,3 C 67 % 1021,6 hPa 0,0 l/m 4,8 km/h (1 Bft) S-SW 202 8,8 C 14,9 C 14,9 km/h (3 Bft)
17.10.2018 11:34 14,8 C 22,2 C 12,1 C 16,2 C 67 % 1021,6 hPa 0,0 l/m 3,4 km/h (1 Bft) NW 315 8,7 C 14,8 C 8,3 km/h (2 Bft)
17.10.2018 11:32 14,7 C 21,9 C 12,0 C 16,1 C 67 % 1021,6 hPa 0,0 l/m 3,2 km/h (1 Bft) S 180 8,6 C 14,7 C 8,3 km/h (2 Bft)
17.10.2018 11:30 14,7 C 23,1 C 12,1 C 15,9 C 68 % 1021,6 hPa 0,0 l/m 2,4 km/h (1 Bft) S 180 8,9 C 14,7 C 8,1 km/h (2 Bft)
17.10.2018 11:28 14,6 C 22,6 C 12,1 C 15,8 C 69 % 1021,6 hPa 0,0 l/m 1,8 km/h (1 Bft) S 180 9,0 C 14,6 C 6,6 km/h (2 Bft)
17.10.2018 11:26 14,6 C 22,6 C 12,1 C 15,5 C 69 % 1021,9 hPa 0,0 l/m 1,8 km/h (1 Bft) S 180 9,0 C 14,6 C 6,6 km/h (2 Bft)
17.10.2018 11:24 14,5 C 20,9 C 12,0 C 15,3 C 69 % 1021,9 hPa 0,0 l/m 1,8 km/h (1 Bft) W-SW 247 8,9 C 14,5 C 0,0 km/h (0 Bft)
17.10.2018 11:22 14,4 C 21,1 C 12,0 C 15,3 C 70 % 1021,9 hPa 0,0 l/m 1,8 km/h (1 Bft) S-SW 202 9,0 C 14,4 C 0,0 km/h (0 Bft)
17.10.2018 11:20 14,1 C 20,9 C 12,0 C 15,2 C 70 % 1021,9 hPa 0,0 l/m 1,9 km/h (1 Bft) S-SW 202 8,7 C 14,1 C 0,0 km/h (0 Bft)
17.10.2018 11:19 14,1 C 20,9 C 12,0 C 15,2 C 70 % 1021,9 hPa 0,0 l/m 1,9 km/h (1 Bft) S-SW 202 8,7 C 14,1 C 0,0 km/h (0 Bft)
17.10.2018 11:16 13,8 C 20,7 C 11,9 C 15,1 C 70 % 1021,9 hPa 0,0 l/m 2,7 km/h (1 Bft) S-SW 202 8,4 C 13,8 C 10,6 km/h (2 Bft)
17.10.2018 11:14 13,9 C 21,9 C 11,9 C 14,9 C 70 % 1021,9 hPa 0,0 l/m 2,6 km/h (1 Bft) S-SO 157 8,5 C 13,9 C 9,3 km/h (2 Bft)
17.10.2018 11:12 13,9 C 22,5 C 11,9 C 14,8 C 70 % 1021,9 hPa 0,0 l/m 2,4 km/h (1 Bft) W 270 8,5 C 13,9 C 8,1 km/h (2 Bft)
17.10.2018 11:10 13,6 C 22,6 C 11,9 C 14,7 C 71 % 1021,9 hPa 0,0 l/m 2,7 km/h (1 Bft) S-SW 202 8,4 C 13,6 C 2,7 km/h (1 Bft)
17.10.2018 11:09 13,6 C 22,6 C 11,9 C 14,7 C 71 % 1021,9 hPa 0,0 l/m 2,7 km/h (1 Bft) S-SW 202 8,4 C 13,6 C 2,7 km/h (1 Bft)
17.10.2018 11:06 13,5 C 21,5 C 11,9 C 14,4 C 71 % 1021,6 hPa 0,0 l/m 2,9 km/h (1 Bft) O 90 8,3 C 13,5 C 7,0 km/h (2 Bft)
17.10.2018 11:04 13,4 C 22,0 C 11,8 C 14,3 C 71 % 1021,6 hPa 0,0 l/m 2,6 km/h (1 Bft) S-SO 157 8,3 C 13,4 C 3,7 km/h (1 Bft)
17.10.2018 11:02 13,3 C 22,6 C 11,8 C 14,1 C 71 % 1021,6 hPa 0,0 l/m 2,9 km/h (1 Bft) S-SO 157 8,2 C 13,3 C 4,8 km/h (1 Bft)
17.10.2018 11:00 13,2 C 24,0 C 11,8 C 14,0 C 72 % 1021,6 hPa 0,0 l/m 3,1 km/h (1 Bft) S-SO 157 8,3 C 13,2 C 5,8 km/h (2 Bft)
17.10.2018 10:58 13,0 C 23,7 C 11,9 C 13,9 C 72 % 1021,6 hPa 0,0 l/m 2,4 km/h (1 Bft) S 180 8,1 C 13,0 C 5,8 km/h (2 Bft)
17.10.2018 10:56 12,8 C 23,3 C 11,9 C 13,6 C 73 % 1021,6 hPa 0,0 l/m 1,8 km/h (1 Bft) O-SO 112 8,1 C 12,8 C 8,5 km/h (2 Bft)
17.10.2018 10:54 12,8 C 22,9 C 11,9 C 13,4 C 72 % 1021,6 hPa 0,0 l/m 1,4 km/h (1 Bft) O-SO 112 7,9 C 12,8 C 5,0 km/h (1 Bft)
17.10.2018 10:52 12,8 C 22,7 C 11,9 C 13,2 C 73 % 1021,6 hPa 0,0 l/m 1,0 km/h (0 Bft) S-SO 157 8,1 C 12,8 C 4,2 km/h (1 Bft)
17.10.2018 10:50 12,6 C 22,5 C 11,8 C 13,1 C 75 % 1021,6 hPa 0,0 l/m 0,6 km/h (0 Bft) SW 225 8,3 C 12,6 C 4,2 km/h (1 Bft)
17.10.2018 10:49 12,6 C 22,5 C 11,8 C 13,1 C 75 % 1021,6 hPa 0,0 l/m 0,6 km/h (0 Bft) SW 225 8,3 C 12,6 C 4,2 km/h (1 Bft)
17.10.2018 10:46 12,2 C 20,7 C 11,8 C 12,8 C 74 % 1021,8 hPa 0,0 l/m 0,5 km/h (0 Bft) SW 225 7,7 C 12,2 C 2,9 km/h (1 Bft)
17.10.2018 10:44 12,2 C 19,9 C 11,8 C 12,5 C 75 % 1021,8 hPa 0,0 l/m 0,6 km/h (0 Bft) W-SW 247 7,9 C 12,2 C 2,9 km/h (1 Bft)
17.10.2018 10:42 12,1 C 20,3 C 11,8 C 12,4 C 76 % 1021,8 hPa 0,0 l/m 1,0 km/h (0 Bft) S-SW 202 8,0 C 12,1 C 0,0 km/h (0 Bft)
17.10.2018 10:40 12,0 C 20,7 C 11,9 C 12,2 C 77 % 1021,8 hPa 0,0 l/m 1,0 km/h (0 Bft) W-SW 247 8,1 C 12,0 C 0,0 km/h (0 Bft)
17.10.2018 10:38 11,6 C 20,3 C 11,8 C 12,1 C 78 % 1021,8 hPa 0,0 l/m 1,1 km/h (1 Bft) W-SW 247 7,9 C 11,6 C 5,0 km/h (1 Bft)
17.10.2018 10:36 11,6 C 19,0 C 11,8 C 12,0 C 78 % 1021,8 hPa 0,0 l/m 1,1 km/h (1 Bft) W-SW 247 7,9 C 11,6 C 5,0 km/h (1 Bft)
17.10.2018 10:34 11,4 C 19,1 C 11,8 C 11,7 C 78 % 1021,8 hPa 0,0 l/m 0,8 km/h (0 Bft) S-SW 202 7,7 C 11,4 C 2,7 km/h (1 Bft)
17.10.2018 10:32 11,1 C 17,9 C 11,8 C 11,6 C 78 % 1021,8 hPa 0,0 l/m 0,5 km/h (0 Bft) S 180 7,4 C 11,1 C 1,9 km/h (1 Bft)
17.10.2018 10:30 11,1 C 19,3 C 11,8 C 11,5 C 78 % 1021,8 hPa 0,0 l/m 0,5 km/h (0 Bft) SW 225 7,4 C 11,1 C 0,0 km/h (0 Bft)
17.10.2018 10:28 10,8 C 20,0 C 11,8 C 11,4 C 79 % 1021,8 hPa 0,0 l/m 0,5 km/h (0 Bft) S-SW 202 7,3 C 10,8 C 0,0 km/h (0 Bft)
17.10.2018 10:26 10,8 C 20,0 C 11,7 C 11,3 C 79 % 1021,9 hPa 0,0 l/m 0,5 km/h (0 Bft) S-SW 202 7,3 C 10,8 C 0,0 km/h (0 Bft)
17.10.2018 10:24 10,8 C 20,6 C 11,8 C 11,1 C 79 % 1021,9 hPa 0,0 l/m 0,6 km/h (0 Bft) S-SO 157 7,3 C 10,8 C 0,0 km/h (0 Bft)
17.10.2018 10:22 10,6 C 20,3 C 11,8 C 11,0 C 79 % 1021,9 hPa 0,0 l/m 0,8 km/h (0 Bft) S 180 7,1 C 10,6 C 3,1 km/h (1 Bft)
17.10.2018 10:20 10,4 C 19,0 C 11,8 C 10,9 C 79 % 1021,9 hPa 0,0 l/m 0,6 km/h (0 Bft) S 180 6,9 C 10,4 C 3,1 km/h (1 Bft)
17.10.2018 10:18 10,4 C 19,0 C 11,8 C 10,6 C 79 % 1021,9 hPa 0,0 l/m 0,6 km/h (0 Bft) S-SO 157 6,9 C 10,4 C 0,0 km/h (0 Bft)
17.10.2018 10:16 10,3 C 18,0 C 11,7 C 10,5 C 80 % 1021,9 hPa 0,0 l/m 0,5 km/h (0 Bft) O-SO 112 7,0 C 10,3 C 6,6 km/h (2 Bft)
17.10.2018 10:14 10,1 C 18,1 C 11,8 C 10,3 C 81 % 1021,9 hPa 0,0 l/m 0,5 km/h (0 Bft) S 180 7,0 C 10,1 C 2,3 km/h (1 Bft)
17.10.2018 10:12 9,9 C 18,1 C 11,8 C 10,2 C 82 % 1021,9 hPa 0,0 l/m 0,6 km/h (0 Bft) S-SW 202 7,0 C 9,9 C 2,3 km/h (1 Bft)
17.10.2018 10:10 9,7 C 18,2 C 11,8 C 9,9 C 83 % 1021,9 hPa 0,0 l/m 0,6 km/h (0 Bft) S-SO 157 7,0 C 9,7 C 0,0 km/h (0 Bft)
17.10.2018 10:09 9,7 C 18,2 C 11,8 C 9,9 C 83 % 1021,9 hPa 0,0 l/m 0,6 km/h (0 Bft) S-SO 157 7,0 C 9,7 C 0,0 km/h (0 Bft)
17.10.2018 10:06 9,6 C 19,6 C 11,7 C 9,5 C 83 % 1022,1 hPa 0,0 l/m 1,1 km/h (1 Bft) S-SO 157 6,9 C 9,6 C 4,1 km/h (1 Bft)
17.10.2018 10:04 9,6 C 18,6 C 11,8 C 9,4 C 84 % 1022,1 hPa 0,0 l/m 1,6 km/h (1 Bft) S 180 7,0 C 9,6 C 2,3 km/h (1 Bft)
17.10.2018 10:02 9,4 C 18,6 C 11,8 C 8,9 C 85 % 1022,1 hPa 0,0 l/m 1,3 km/h (1 Bft) S-SW 202 7,0 C 9,4 C 2,3 km/h (1 Bft)
17.10.2018 10:00 9,1 C 18,5 C 11,8 C 8,9 C 85 % 1022,1 hPa 0,0 l/m 1,1 km/h (1 Bft) S 180 6,7 C 9,1 C 2,9 km/h (1 Bft)
17.10.2018 09:58 8,8 C 17,6 C 11,8 C 8,7 C 86 % 1022,1 hPa 0,0 l/m 1,1 km/h (1 Bft) S-SW 202 6,6 C 8,8 C 3,3 km/h (1 Bft)
17.10.2018 09:56 8,7 C 15,8 C 11,8 C 8,5 C 86 % 1022,1 hPa 0,0 l/m 0,6 km/h (0 Bft) S-SW 202 6,5 C 8,7 C 3,3 km/h (1 Bft)
17.10.2018 09:54 8,5 C 15,2 C 11,8 C 8,2 C 86 % 1022,1 hPa 0,0 l/m 0,3 km/h (0 Bft) S-SO 157 6,3 C 8,5 C 3,1 km/h (1 Bft)
17.10.2018 09:52 8,2 C 14,7 C 11,7 C 8,0 C 86 % 1022,1 hPa 0,0 l/m 0,3 km/h (0 Bft) S-SO 157 6,0 C 8,2 C 1,9 km/h (1 Bft)
17.10.2018 09:50 8,2 C 15,5 C 11,7 C 7,8 C 87 % 1022,1 hPa 0,0 l/m 0,3 km/h (0 Bft) O-SO 112 6,2 C 8,2 C 1,9 km/h (1 Bft)
17.10.2018 09:49 8,2 C 15,5 C 11,7 C 7,8 C 87 % 1022,1 hPa 0,0 l/m 0,3 km/h (0 Bft) O-SO 112 6,2 C 8,2 C 1,9 km/h (1 Bft)
17.10.2018 09:46 7,8 C 12,8 C 11,7 C 7,1 C 87 % 1022,2 hPa 0,0 l/m 0,3 km/h (0 Bft) S-SW 202 5,8 C 7,8 C 0,0 km/h (0 Bft)
17.10.2018 09:44 7,6 C 12,2 C 11,7 C 7,1 C 87 % 1022,2 hPa 0,0 l/m 0,3 km/h (0 Bft) S-SW 202 5,6 C 7,6 C 2,3 km/h (1 Bft)
17.10.2018 09:42 7,4 C 11,7 C 11,7 C 6,9 C 87 % 1022,2 hPa 0,0 l/m 0,2 km/h (0 Bft) S 180 5,4 C 7,4 C 2,3 km/h (1 Bft)
17.10.2018 09:40 7,3 C 11,8 C 11,7 C 6,7 C 87 % 1022,2 hPa 0,0 l/m 0,0 km/h (0 Bft) S-SO 157 5,3 C 7,3 C 0,0 km/h (0 Bft)
17.10.2018 09:38 7,2 C 11,5 C 11,7 C 6,4 C 87 % 1022,2 hPa 0,0 l/m 0,0 km/h (0 Bft) S-SO 157 5,2 C 7,2 C 0,0 km/h (0 Bft)
17.10.2018 09:36 7,1 C 11,6 C 11,7 C 6,3 C 87 % 1022,2 hPa 0,0 l/m 0,0 km/h (0 Bft) S-SO 157 5,1 C 7,1 C 0,0 km/h (0 Bft)
17.10.2018 09:34 6,9 C 11,8 C 11,7 C 6,2 C 87 % 1022,2 hPa 0,0 l/m 0,0 km/h (0 Bft) S-SO 157 4,9 C 6,9 C 0,0 km/h (0 Bft)
17.10.2018 09:32 6,9 C 12,5 C 11,8 C 5,9 C 87 % 1022,2 hPa 0,0 l/m 0,0 km/h (0 Bft) S-SO 157 4,9 C 6,9 C 0,0 km/h (0 Bft)
17.10.2018 09:30 6,6 C 12,0 C 11,8 C 5,8 C 87 % 1022,2 hPa 0,0 l/m 0,0 km/h (0 Bft) S-SO 157 4,6 C 6,6 C 0,0 km/h (0 Bft)
17.10.2018 09:28 6,2 C 12,0 C 11,8 C 5,7 C 85 % 1022,2 hPa 0,0 l/m 0,0 km/h (0 Bft) W-SW 247 3,9 C 6,2 C 0,0 km/h (0 Bft)
17.10.2018 09:26 6,2 C 12,0 C 11,8 C 5,5 C 85 % 1022,2 hPa 0,0 l/m 0,0 km/h (0 Bft) W-SW 247 3,9 C 6,2 C 0,0 km/h (0 Bft)
17.10.2018 09:24 6,1 C 8,8 C 11,8 C 5,4 C 84 % 1022,2 hPa 0,0 l/m 0,0 km/h (0 Bft) W 270 3,6 C 6,1 C 0,0 km/h (0 Bft)
17.10.2018 09:22 5,9 C 7,8 C 11,8 C 5,3 C 85 % 1022,2 hPa 0,0 l/m 0,0 km/h (0 Bft) W-SW 247 3,6 C 5,9 C 0,0 km/h (0 Bft)
17.10.2018 09:20 5,9 C 7,8 C 11,8 C 5,2 C 85 % 1022,2 hPa 0,0 l/m 0,0 km/h (0 Bft) S 180 3,6 C 5,9 C 0,0 km/h (0 Bft)
17.10.2018 09:18 5,8 C 7,4 C 11,8 C 5,1 C 85 % 1022,2 hPa 0,0 l/m 0,0 km/h (0 Bft) N 360 3,5 C 5,8 C 0,0 km/h (0 Bft)
17.10.2018 09:16 5,7 C 7,3 C 11,8 C 5,1 C 85 % 1022,2 hPa 0,0 l/m 0,0 km/h (0 Bft) N 360 3,4 C 5,7 C 0,0 km/h (0 Bft)
17.10.2018 09:14 5,7 C 7,2 C 11,9 C 5,1 C 85 % 1022,2 hPa 0,0 l/m 0,0 km/h (0 Bft) N 360 3,4 C 5,7 C 0,0 km/h (0 Bft)
17.10.2018 09:12 5,6 C 7,1 C 11,9 C 5,0 C 85 % 1022,2 hPa 0,0 l/m 0,0 km/h (0 Bft) N 360 3,3 C 5,6 C 0,0 km/h (0 Bft)
17.10.2018 09:10 5,6 C 6,9 C 11,9 C 5,0 C 85 % 1022,2 hPa 0,0 l/m 0,0 km/h (0 Bft) N 360 3,3 C 5,6 C 0,0 km/h (0 Bft)
17.10.2018 09:08 5,5 C 7,0 C 11,9 C 4,9 C 85 % 1022,2 hPa 0,0 l/m 0,0 km/h (0 Bft) NO 45 3,2 C 5,5 C 0,0 km/h (0 Bft)
17.10.2018 09:06 5,5 C 7,0 C 11,9 C 4,9 C 85 % 1022,1 hPa 0,0 l/m 0,0 km/h (0 Bft) NO 45 3,2 C 5,5 C 0,0 km/h (0 Bft)
17.10.2018 09:04 5,5 C 6,9 C 11,8 C 4,9 C 85 % 1022,1 hPa 0,0 l/m 0,0 km/h (0 Bft) NO 45 3,2 C 5,5 C 0,0 km/h (0 Bft)
17.10.2018 09:02 5,5 C 6,9 C 11,9 C 4,9 C 85 % 1022,1 hPa 0,0 l/m 0,2 km/h (0 Bft) NO 45 3,2 C 5,5 C 0,0 km/h (0 Bft)
17.10.2018 09:00 5,5 C 6,7 C 11,8 C 4,8 C 85 % 1022,1 hPa 0,0 l/m 0,2 km/h (0 Bft) O-SO 112 3,2 C 5,5 C 0,0 km/h (0 Bft)
17.10.2018 08:58 5,5 C 6,5 C 11,8 C 4,8 C 85 % 1022,1 hPa 0,0 l/m 0,2 km/h (0 Bft) O 90 3,2 C 5,5 C 0,0 km/h (0 Bft)
17.10.2018 08:56 5,4 C 7,8 C 11,9 C 4,7 C 85 % 1022,1 hPa 0,0 l/m 0,2 km/h (0 Bft) S-SO 157 3,1 C 5,4 C 0,0 km/h (0 Bft)
17.10.2018 08:54 5,4 C 7,8 C 11,8 C 4,7 C 85 % 1022,1 hPa 0,0 l/m 0,2 km/h (0 Bft) O-SO 112 3,1 C 5,4 C 2,1 km/h (1 Bft)
17.10.2018 08:52 5,3 C 8,0 C 11,9 C 4,6 C 85 % 1022,1 hPa 0,0 l/m 0,2 km/h (0 Bft) O-SO 112 3,0 C 5,3 C 2,1 km/h (1 Bft)
17.10.2018 08:50 5,3 C 7,3 C 11,9 C 4,5 C 85 % 1022,1 hPa 0,0 l/m 0,0 km/h (0 Bft) S-SO 157 3,0 C 5,3 C 0,0 km/h (0 Bft)
17.10.2018 08:49 5,3 C 7,3 C 11,9 C 4,5 C 85 % 1022,1 hPa 0,0 l/m 0,0 km/h (0 Bft) S-SO 157 3,0 C 5,3 C 0,0 km/h (0 Bft)
17.10.2018 08:46 5,0 C 6,1 C 11,9 C 4,3 C 85 % 1022,0 hPa 0,0 l/m 0,0 km/h (0 Bft) O-SO 112 2,7 C 5,0 C 0,0 km/h (0 Bft)
17.10.2018 08:44 5,0 C 6,2 C 11,9 C 4,3 C 85 % 1022,0 hPa 0,0 l/m 0,0 km/h (0 Bft) O 90 2,7 C 5,0 C 0,0 km/h (0 Bft)
17.10.2018 08:42 4,9 C 6,2 C 11,9 C 4,3 C 85 % 1022,0 hPa 0,0 l/m 0,0 km/h (0 Bft) NO 45 2,6 C 4,9 C 0,0 km/h (0 Bft)
17.10.2018 08:40 4,9 C 6,2 C 11,9 C 4,3 C 85 % 1022,0 hPa 0,0 l/m 0,0 km/h (0 Bft) NO 45 2,6 C 4,9 C 0,0 km/h (0 Bft)
17.10.2018 08:38 4,9 C 6,4 C 11,9 C 4,2 C 85 % 1022,0 hPa 0,0 l/m 0,0 km/h (0 Bft) O 90 2,6 C 4,9 C 0,0 km/h (0 Bft)
17.10.2018 08:36 4,8 C 6,6 C 11,9 C 4,1 C 85 % 1022,0 hPa 0,0 l/m 0,0 km/h (0 Bft) NO 45 2,5 C 4,8 C 0,0 km/h (0 Bft)
17.10.2018 08:34 4,8 C 6,3 C 11,9 C 4,1 C 85 % 1022,0 hPa 0,0 l/m 0,0 km/h (0 Bft) NO 45 2,5 C 4,8 C 0,0 km/h (0 Bft)
17.10.2018 08:32 4,7 C 5,7 C 11,9 C 4,1 C 85 % 1022,0 hPa 0,0 l/m 0,0 km/h (0 Bft) NO 45 2,4 C 4,7 C 0,0 km/h (0 Bft)
17.10.2018 08:30 4,7 C 5,7 C 11,9 C 4,1 C 85 % 1022,0 hPa 0,0 l/m 0,0 km/h (0 Bft) O 90 2,4 C 4,7 C 0,0 km/h (0 Bft)
17.10.2018 08:29 4,7 C 5,7 C 11,9 C 4,1 C 85 % 1022,0 hPa 0,0 l/m 0,0 km/h (0 Bft) O 90 2,4 C 4,7 C 0,0 km/h (0 Bft)
17.10.2018 08:26 4,6 C 5,7 C 11,9 C 4,1 C 85 % 1022,2 hPa 0,0 l/m 0,0 km/h (0 Bft) O 90 2,3 C 4,6 C 0,0 km/h (0 Bft)
17.10.2018 08:24 4,6 C 5,6 C 11,9 C 4,0 C 85 % 1022,2 hPa 0,0 l/m 0,0 km/h (0 Bft) NO 45 2,3 C 4,6 C 0,0 km/h (0 Bft)
17.10.2018 08:22 4,6 C 5,4 C 11,9 C 4,0 C 85 % 1022,2 hPa 0,0 l/m 0,0 km/h (0 Bft) NO 45 2,3 C 4,6 C 0,0 km/h (0 Bft)
17.10.2018 08:20 4,5 C 5,3 C 11,9 C 4,0 C 85 % 1022,2 hPa 0,0 l/m 0,0 km/h (0 Bft) O 90 2,2 C 4,5 C 0,0 km/h (0 Bft)
17.10.2018 08:18 4,5 C 5,1 C 11,9 C 4,0 C 85 % 1022,2 hPa 0,0 l/m 0,0 km/h (0 Bft) O 90 2,2 C 4,5 C 0,0 km/h (0 Bft)
17.10.2018 08:16 4,5 C 5,0 C 11,9 C 3,9 C 85 % 1022,2 hPa 0,0 l/m 0,0 km/h (0 Bft) O 90 2,2 C 4,5 C 0,0 km/h (0 Bft)
17.10.2018 08:14 4,5 C 4,9 C 11,9 C 3,9 C 85 % 1022,2 hPa 0,0 l/m 0,0 km/h (0 Bft) O 90 2,2 C 4,5 C 0,0 km/h (0 Bft)
17.10.2018 08:12 4,5 C 4,9 C 11,9 C 3,9 C 85 % 1022,2 hPa 0,0 l/m 0,0 km/h (0 Bft) N-NO 22 2,2 C 4,5 C 0,0 km/h (0 Bft)
17.10.2018 08:10 4,5 C 4,8 C 11,9 C 3,9 C 85 % 1022,2 hPa 0,0 l/m 0,0 km/h (0 Bft) NO 45 2,2 C 4,5 C 0,0 km/h (0 Bft)
17.10.2018 08:08 4,4 C 4,8 C 11,9 C 3,9 C 85 % 1022,2 hPa 0,0 l/m 0,0 km/h (0 Bft) NO 45 2,1 C 4,4 C 0,0 km/h (0 Bft)
17.10.2018 08:06 4,4 C 4,8 C 11,9 C 3,9 C 85 % 1021,9 hPa 0,0 l/m 0,0 km/h (0 Bft) NO 45 2,1 C 4,4 C 0,0 km/h (0 Bft)
17.10.2018 08:04 4,4 C 4,5 C 11,9 C 3,8 C 85 % 1021,9 hPa 0,0 l/m 0,0 km/h (0 Bft) NO 45 2,1 C 4,4 C 0,0 km/h (0 Bft)
17.10.2018 08:02 4,4 C 4,5 C 11,9 C 3,8 C 85 % 1021,9 hPa 0,0 l/m 0,0 km/h (0 Bft) NO 45 2,1 C 4,4 C 0,0 km/h (0 Bft)
17.10.2018 08:00 4,3 C 4,5 C 11,9 C 3,9 C 85 % 1021,9 hPa 0,0 l/m 0,0 km/h (0 Bft) NO 45 2,0 C 4,3 C 0,0 km/h (0 Bft)
17.10.2018 07:58 4,3 C 4,5 C 11,9 C 3,9 C 85 % 1021,9 hPa 0,0 l/m 0,0 km/h (0 Bft) NO 45 2,0 C 4,3 C 0,0 km/h (0 Bft)
17.10.2018 07:56 4,4 C 4,4 C 11,9 C 3,9 C 85 % 1021,9 hPa 0,0 l/m 0,0 km/h (0 Bft) NO 45 2,1 C 4,4 C 0,0 km/h (0 Bft)
17.10.2018 07:54 4,4 C 4,4 C 11,9 C 3,9 C 85 % 1021,9 hPa 0,0 l/m 0,0 km/h (0 Bft) NO 45 2,1 C 4,4 C 0,0 km/h (0 Bft)
17.10.2018 07:52 4,3 C 4,4 C 11,9 C 3,9 C 85 % 1021,9 hPa 0,0 l/m 0,0 km/h (0 Bft) NO 45 2,0 C 4,3 C 0,0 km/h (0 Bft)
17.10.2018 07:50 4,4 C 4,2 C 11,9 C 3,9 C 85 % 1021,9 hPa 0,0 l/m 0,0 km/h (0 Bft) NO 45 2,1 C 4,4 C 0,0 km/h (0 Bft)
17.10.2018 07:48 4,4 C 4,2 C 11,9 C 3,9 C 85 % 1021,9 hPa 0,0 l/m 0,0 km/h (0 Bft) NO 45 2,1 C 4,4 C 0,0 km/h (0 Bft)
17.10.2018 07:46 4,4 C 4,2 C 11,9 C 3,9 C 85 % 1022,0 hPa 0,0 l/m 0,0 km/h (0 Bft) NO 45 2,1 C 4,4 C 0,0 km/h (0 Bft)
17.10.2018 07:44 4,4 C 3,9 C 11,9 C 3,9 C 85 % 1022,0 hPa 0,0 l/m 0,0 km/h (0 Bft) O-NO 67 2,1 C 4,4 C 0,0 km/h (0 Bft)
17.10.2018 07:42 4,2 C 4,0 C 11,9 C 3,9 C 85 % 1022,0 hPa 0,0 l/m 0,0 km/h (0 Bft) O-SO 112 1,9 C 4,2 C 0,0 km/h (0 Bft)
17.10.2018 07:40 4,2 C 4,0 C 11,9 C 3,9 C 85 % 1022,0 hPa 0,0 l/m 0,0 km/h (0 Bft) SO 135 1,9 C 4,2 C 0,0 km/h (0 Bft)
17.10.2018 07:38 4,2 C 4,0 C 11,9 C 3,9 C 85 % 1022,0 hPa 0,0 l/m 0,0 km/h (0 Bft) O 90 1,9 C 4,2 C 0,0 km/h (0 Bft)
17.10.2018 07:36 4,2 C 4,0 C 11,9 C 3,9 C 85 % 1022,0 hPa 0,0 l/m 0,0 km/h (0 Bft) O 90 1,9 C 4,2 C 0,0 km/h (0 Bft)
17.10.2018 07:34 4,2 C 4,0 C 12,0 C 3,9 C 85 % 1022,0 hPa 0,0 l/m 0,0 km/h (0 Bft) NO 45 1,9 C 4,2 C 0,0 km/h (0 Bft)
17.10.2018 07:32 4,2 C 4,0 C 12,0 C 3,9 C 85 % 1022,0 hPa 0,0 l/m 0,0 km/h (0 Bft) NO 45 1,9 C 4,2 C 0,0 km/h (0 Bft)
17.10.2018 07:30 4,2 C 3,9 C 12,0 C 3,9 C 85 % 1022,0 hPa 0,0 l/m 0,0 km/h (0 Bft) NO 45 1,9 C 4,2 C 0,0 km/h (0 Bft)
17.10.2018 07:28 4,3 C 4,0 C 12,0 C 3,9 C 85 % 1022,0 hPa 0,0 l/m 0,0 km/h (0 Bft) O 90 2,0 C 4,3 C 0,0 km/h (0 Bft)
17.10.2018 07:26 4,3 C 4,0 C 12,0 C 3,9 C 85 % 1021,9 hPa 0,0 l/m 0,0 km/h (0 Bft) O 90 2,0 C 4,3 C 0,0 km/h (0 Bft)
17.10.2018 07:24 4,3 C 3,9 C 12,0 C 3,9 C 85 % 1021,9 hPa 0,0 l/m 0,0 km/h (0 Bft) NO 45 2,0 C 4,3 C 0,0 km/h (0 Bft)
17.10.2018 07:22 4,3 C 3,9 C 12,0 C 4,0 C 85 % 1021,9 hPa 0,0 l/m 0,0 km/h (0 Bft) NO 45 2,0 C 4,3 C 0,0 km/h (0 Bft)
17.10.2018 07:20 4,3 C 3,9 C 12,0 C 4,0 C 85 % 1021,9 hPa 0,0 l/m 0,0 km/h (0 Bft) NO 45 2,0 C 4,3 C 0,0 km/h (0 Bft)
17.10.2018 07:18 4,5 C 3,9 C 12,0 C 4,0 C 85 % 1021,9 hPa 0,0 l/m 0,0 km/h (0 Bft) NO 45 2,2 C 4,5 C 0,0 km/h (0 Bft)
17.10.2018 07:16 4,5 C 4,0 C 12,0 C 4,0 C 85 % 1021,9 hPa 0,0 l/m 0,0 km/h (0 Bft) NO 45 2,2 C 4,5 C 0,0 km/h (0 Bft)
17.10.2018 07:14 4,5 C 3,9 C 12,0 C 4,0 C 85 % 1021,9 hPa 0,0 l/m 0,0 km/h (0 Bft) O 90 2,2 C 4,5 C 0,0 km/h (0 Bft)
17.10.2018 07:12 4,5 C 3,7 C 12,0 C 4,1 C 85 % 1021,9 hPa 0,0 l/m 0,0 km/h (0 Bft) O 90 2,2 C 4,5 C 0,0 km/h (0 Bft)
17.10.2018 07:10 4,5 C 3,9 C 12,0 C 4,1 C 85 % 1021,9 hPa 0,0 l/m 0,0 km/h (0 Bft) O 90 2,2 C 4,5 C 0,0 km/h (0 Bft)
17.10.2018 07:08 4,5 C 4,0 C 12,0 C 4,1 C 85 % 1021,9 hPa 0,0 l/m 0,0 km/h (0 Bft) O 90 2,2 C 4,5 C 0,0 km/h (0 Bft)
17.10.2018 07:06 4,5 C 4,0 C 12,0 C 4,1 C 85 % 1021,7 hPa 0,0 l/m 0,0 km/h (0 Bft) O 90 2,2 C 4,5 C 0,0 km/h (0 Bft)
17.10.2018 07:04 4,5 C 3,9 C 12,0 C 4,1 C 85 % 1021,7 hPa 0,0 l/m 0,0 km/h (0 Bft) O 90 2,2 C 4,5 C 0,0 km/h (0 Bft)
17.10.2018 07:02 4,5 C 4,0 C 12,0 C 4,1 C 85 % 1021,7 hPa 0,0 l/m 0,0 km/h (0 Bft) O 90 2,2 C 4,5 C 0,0 km/h (0 Bft)
17.10.2018 07:00 4,5 C 4,0 C 12,0 C 4,1 C 85 % 1021,7 hPa 0,0 l/m 0,0 km/h (0 Bft) NO 45 2,2 C 4,5 C 0,0 km/h (0 Bft)
17.10.2018 06:58 4,5 C 4,0 C 12,0 C 4,2 C 85 % 1021,7 hPa 0,0 l/m 0,0 km/h (0 Bft) NO 45 2,2 C 4,5 C 0,0 km/h (0 Bft)
17.10.2018 06:56 4,5 C 4,3 C 12,0 C 4,2 C 85 % 1021,7 hPa 0,0 l/m 0,0 km/h (0 Bft) NO 45 2,2 C 4,5 C 0,0 km/h (0 Bft)
17.10.2018 06:54 4,5 C 4,0 C 12,0 C 4,2 C 85 % 1021,7 hPa 0,0 l/m 0,0 km/h (0 Bft) NO 45 2,2 C 4,5 C 0,0 km/h (0 Bft)
17.10.2018 06:52 4,6 C 4,2 C 12,0 C 4,2 C 85 % 1021,7 hPa 0,0 l/m 0,0 km/h (0 Bft) NO 45 2,3 C 4,6 C 0,0 km/h (0 Bft)
17.10.2018 06:50 4,6 C 4,2 C 12,0 C 4,2 C 85 % 1021,7 hPa 0,0 l/m 0,0 km/h (0 Bft) S-SO 157 2,3 C 4,6 C 0,0 km/h (0 Bft)
17.10.2018 06:48 4,6 C 4,4 C 12,1 C 4,2 C 85 % 1021,7 hPa 0,0 l/m 0,0 km/h (0 Bft) NO 45 2,3 C 4,6 C 0,0 km/h (0 Bft)
17.10.2018 06:46 4,6 C 4,4 C 12,1 C 4,2 C 85 % 1021,6 hPa 0,0 l/m 0,0 km/h (0 Bft) NO 45 2,3 C 4,6 C 0,0 km/h (0 Bft)
17.10.2018 06:44 4,6 C 4,0 C 12,1 C 4,2 C 85 % 1021,6 hPa 0,0 l/m 0,0 km/h (0 Bft) NO 45 2,3 C 4,6 C 0,0 km/h (0 Bft)
17.10.2018 06:42 4,6 C 4,0 C 12,1 C 4,2 C 85 % 1021,6 hPa 0,0 l/m 0,0 km/h (0 Bft) NO 45 2,3 C 4,6 C 0,0 km/h (0 Bft)
17.10.2018 06:40 4,6 C 4,3 C 12,1 C 4,2 C 85 % 1021,6 hPa 0,0 l/m 0,0 km/h (0 Bft) NO 45 2,3 C 4,6 C 0,0 km/h (0 Bft)
17.10.2018 06:38 4,6 C 4,5 C 12,1 C 4,3 C 85 % 1021,6 hPa 0,0 l/m 0,0 km/h (0 Bft) NO 45 2,3 C 4,6 C 0,0 km/h (0 Bft)
17.10.2018 06:36 4,6 C 4,4 C 12,1 C 4,3 C 85 % 1021,6 hPa 0,0 l/m 0,0 km/h (0 Bft) NO 45 2,3 C 4,6 C 0,0 km/h (0 Bft)
17.10.2018 06:34 4,6 C 4,4 C 12,1 C 4,3 C 85 % 1021,6 hPa 0,0 l/m 0,0 km/h (0 Bft) N 360 2,3 C 4,6 C 0,0 km/h (0 Bft)
17.10.2018 06:32 4,6 C 4,4 C 12,1 C 4,3 C 85 % 1021,6 hPa 0,0 l/m 0,0 km/h (0 Bft) O-SO 112 2,3 C 4,6 C 0,0 km/h (0 Bft)
17.10.2018 06:30 4,6 C 4,2 C 12,1 C 4,3 C 85 % 1021,6 hPa 0,0 l/m 0,0 km/h (0 Bft) O-NO 67 2,3 C 4,6 C 0,0 km/h (0 Bft)
17.10.2018 06:28 4,6 C 4,0 C 12,1 C 4,3 C 85 % 1021,6 hPa 0,0 l/m 0,0 km/h (0 Bft) O-NO 67 2,3 C 4,6 C 0,0 km/h (0 Bft)
17.10.2018 06:26 4,6 C 4,0 C 12,1 C 4,3 C 85 % 1021,4 hPa 0,0 l/m 0,0 km/h (0 Bft) O-NO 67 2,3 C 4,6 C 0,0 km/h (0 Bft)
17.10.2018 06:24 4,6 C 4,2 C 12,1 C 4,3 C 85 % 1021,4 hPa 0,0 l/m 0,0 km/h (0 Bft) O 90 2,3 C 4,6 C 0,0 km/h (0 Bft)
17.10.2018 06:22 4,6 C 4,4 C 12,1 C 4,3 C 85 % 1021,4 hPa 0,0 l/m 0,0 km/h (0 Bft) O 90 2,3 C 4,6 C 0,0 km/h (0 Bft)
17.10.2018 06:20 4,6 C 4,3 C 12,1 C 4,3 C 85 % 1021,4 hPa 0,0 l/m 0,0 km/h (0 Bft) O 90 2,3 C 4,6 C 0,0 km/h (0 Bft)
17.10.2018 06:18 4,6 C 4,3 C 12,1 C 4,3 C 85 % 1021,4 hPa 0,0 l/m 0,0 km/h (0 Bft) O 90 2,3 C 4,6 C 0,0 km/h (0 Bft)
17.10.2018 06:16 4,6 C 4,2 C 12,1 C 4,3 C 85 % 1021,4 hPa 0,0 l/m 0,0 km/h (0 Bft) O 90 2,3 C 4,6 C 0,0 km/h (0 Bft)
17.10.2018 06:14 4,6 C 4,4 C 12,1 C 4,3 C 85 % 1021,4 hPa 0,0 l/m 0,0 km/h (0 Bft) O-SO 112 2,3 C 4,6 C 0,0 km/h (0 Bft)
17.10.2018 06:12 4,7 C 4,0 C 12,2 C 4,4 C 84 % 1021,4 hPa 0,0 l/m 0,0 km/h (0 Bft) O-NO 67 2,2 C 4,7 C 0,0 km/h (0 Bft)
17.10.2018 06:10 4,7 C 4,4 C 12,2 C 4,4 C 84 % 1021,4 hPa 0,0 l/m 0,0 km/h (0 Bft) O-SO 112 2,2 C 4,7 C 0,0 km/h (0 Bft)
17.10.2018 06:09 4,7 C 4,4 C 12,2 C 4,4 C 84 % 1021,4 hPa 0,0 l/m 0,0 km/h (0 Bft) O-SO 112 2,2 C 4,7 C 0,0 km/h (0 Bft)
17.10.2018 06:06 4,7 C 4,4 C 12,2 C 4,4 C 84 % 1021,6 hPa 0,0 l/m 0,0 km/h (0 Bft) O-SO 112 2,2 C 4,7 C 0,0 km/h (0 Bft)
17.10.2018 06:04 4,7 C 4,4 C 12,2 C 4,4 C 84 % 1021,6 hPa 0,0 l/m 0,0 km/h (0 Bft) O-SO 112 2,2 C 4,7 C 0,0 km/h (0 Bft)
17.10.2018 06:02 4,7 C 4,4 C 12,2 C 4,4 C 84 % 1021,6 hPa 0,0 l/m 0,0 km/h (0 Bft) O-SO 112 2,2 C 4,7 C 0,0 km/h (0 Bft)
17.10.2018 06:00 4,7 C 4,4 C 12,2 C 4,4 C 84 % 1021,6 hPa 0,0 l/m 0,0 km/h (0 Bft) SO 135 2,2 C 4,7 C 0,0 km/h (0 Bft)
17.10.2018 05:58 4,7 C 4,6 C 12,2 C 4,4 C 84 % 1021,6 hPa 0,0 l/m 0,0 km/h (0 Bft) S-SO 157 2,2 C 4,7 C 0,0 km/h (0 Bft)
17.10.2018 05:56 4,7 C 4,5 C 12,2 C 4,5 C 84 % 1021,6 hPa 0,0 l/m 0,0 km/h (0 Bft) SO 135 2,2 C 4,7 C 0,0 km/h (0 Bft)
17.10.2018 05:54 4,8 C 4,4 C 12,2 C 4,5 C 84 % 1021,6 hPa 0,0 l/m 0,0 km/h (0 Bft) S-SO 157 2,3 C 4,8 C 0,0 km/h (0 Bft)
17.10.2018 05:52 4,8 C 4,4 C 12,2 C 4,5 C 84 % 1021,6 hPa 0,0 l/m 0,0 km/h (0 Bft) N-NO 22 2,3 C 4,8 C 0,0 km/h (0 Bft)
17.10.2018 05:50 4,8 C 4,2 C 12,2 C 4,5 C 84 % 1021,6 hPa 0,0 l/m 0,0 km/h (0 Bft) N-NO 22 2,3 C 4,8 C 0,0 km/h (0 Bft)
17.10.2018 05:48 4,8 C 4,3 C 12,2 C 4,5 C 85 % 1021,6 hPa 0,0 l/m 0,0 km/h (0 Bft) N-NO 22 2,5 C 4,8 C 0,0 km/h (0 Bft)
17.10.2018 05:46 4,8 C 4,3 C 12,2 C 4,6 C 85 % 1021,6 hPa 0,0 l/m 0,0 km/h (0 Bft) N-NO 22 2,5 C 4,8 C 0,0 km/h (0 Bft)
17.10.2018 05:44 4,8 C 4,3 C 12,2 C 4,6 C 84 % 1021,6 hPa 0,0 l/m 0,0 km/h (0 Bft) N-NO 22 2,3 C 4,8 C 0,0 km/h (0 Bft)
17.10.2018 05:42 4,8 C 4,3 C 12,2 C 4,6 C 84 % 1021,6 hPa 0,0 l/m 0,0 km/h (0 Bft) N-NO 22 2,3 C 4,8 C 0,0 km/h (0 Bft)
17.10.2018 05:40 4,8 C 4,4 C 12,2 C 4,6 C 84 % 1021,6 hPa 0,0 l/m 0,0 km/h (0 Bft) N-NO 22 2,3 C 4,8 C 0,0 km/h (0 Bft)
17.10.2018 05:38 4,9 C 4,2 C 12,2 C 4,7 C 84 % 1021,6 hPa 0,0 l/m 0,0 km/h (0 Bft) N-NO 22 2,4 C 4,9 C 0,0 km/h (0 Bft)
17.10.2018 05:36 4,9 C 4,2 C 12,2 C 4,7 C 84 % 1021,6 hPa 0,0 l/m 0,0 km/h (0 Bft) N-NO 22 2,4 C 4,9 C 0,0 km/h (0 Bft)
17.10.2018 05:34 4,9 C 4,1 C 12,2 C 4,7 C 84 % 1021,6 hPa 0,0 l/m 0,0 km/h (0 Bft) N-NO 22 2,4 C 4,9 C 0,0 km/h (0 Bft)
17.10.2018 05:32 4,9 C 4,1 C 12,2 C 4,7 C 84 % 1021,6 hPa 0,0 l/m 0,0 km/h (0 Bft) N-NO 22 2,4 C 4,9 C 0,0 km/h (0 Bft)
17.10.2018 05:30 5,0 C 4,1 C 12,2 C 4,7 C 84 % 1021,6 hPa 0,0 l/m 0,0 km/h (0 Bft) O-NO 67 2,5 C 5,0 C 0,0 km/h (0 Bft)
17.10.2018 05:28 5,0 C 4,2 C 12,2 C 4,7 C 84 % 1021,6 hPa 0,0 l/m 0,0 km/h (0 Bft) O 90 2,5 C 5,0 C 0,0 km/h (0 Bft)
17.10.2018 05:26 5,0 C 4,2 C 12,2 C 4,7 C 84 % 1021,5 hPa 0,0 l/m 0,0 km/h (0 Bft) O 90 2,5 C 5,0 C 0,0 km/h (0 Bft)
17.10.2018 05:24 5,0 C 4,2 C 12,2 C 4,7 C 84 % 1021,5 hPa 0,0 l/m 0,0 km/h (0 Bft) O 90 2,5 C 5,0 C 0,0 km/h (0 Bft)
17.10.2018 05:22 5,0 C 4,5 C 12,3 C 4,7 C 84 % 1021,5 hPa 0,0 l/m 0,0 km/h (0 Bft) S 180 2,5 C 5,0 C 0,0 km/h (0 Bft)
17.10.2018 05:20 5,0 C 4,5 C 12,3 C 4,7 C 84 % 1021,5 hPa 0,0 l/m 0,0 km/h (0 Bft) S 180 2,5 C 5,0 C 0,0 km/h (0 Bft)
17.10.2018 05:18 5,0 C 4,4 C 12,3 C 4,7 C 84 % 1021,5 hPa 0,0 l/m 0,0 km/h (0 Bft) S 180 2,5 C 5,0 C 0,0 km/h (0 Bft)
17.10.2018 05:16 5,2 C 4,5 C 12,3 C 4,8 C 84 % 1021,5 hPa 0,0 l/m 0,0 km/h (0 Bft) NO 45 2,7 C 5,2 C 0,0 km/h (0 Bft)
17.10.2018 05:14 5,2 C 4,4 C 12,3 C 4,8 C 84 % 1021,5 hPa 0,0 l/m 0,0 km/h (0 Bft) NO 45 2,7 C 5,2 C 1,9 km/h (1 Bft)
17.10.2018 05:12 5,2 C 4,5 C 12,3 C 4,8 C 84 % 1021,5 hPa 0,0 l/m 0,0 km/h (0 Bft) NO 45 2,7 C 5,2 C 1,9 km/h (1 Bft)
17.10.2018 05:10 5,2 C 4,6 C 12,3 C 4,8 C 84 % 1021,5 hPa 0,0 l/m 0,0 km/h (0 Bft) O-NO 67 2,7 C 5,2 C 0,0 km/h (0 Bft)
17.10.2018 05:09 5,2 C 4,6 C 12,3 C 4,8 C 84 % 1021,5 hPa 0,0 l/m 0,0 km/h (0 Bft) O-NO 67 2,7 C 5,2 C 0,0 km/h (0 Bft)
17.10.2018 05:06 5,2 C 4,7 C 12,3 C 4,9 C 84 % 1021,2 hPa 0,0 l/m 0,0 km/h (0 Bft) O-NO 67 2,7 C 5,2 C 0,0 km/h (0 Bft)
17.10.2018 05:04 5,2 C 4,6 C 12,3 C 4,9 C 84 % 1021,2 hPa 0,0 l/m 0,0 km/h (0 Bft) O-NO 67 2,7 C 5,2 C 0,0 km/h (0 Bft)
17.10.2018 05:02 5,3 C 4,5 C 12,3 C 4,9 C 84 % 1021,2 hPa 0,0 l/m 0,0 km/h (0 Bft) O-NO 67 2,8 C 5,3 C 0,0 km/h (0 Bft)
17.10.2018 05:00 5,3 C 4,5 C 12,3 C 4,9 C 84 % 1021,2 hPa 0,0 l/m 0,0 km/h (0 Bft) O-NO 67 2,8 C 5,3 C 0,0 km/h (0 Bft)
17.10.2018 04:59 5,3 C 4,5 C 12,3 C 4,9 C 84 % 1021,2 hPa 0,0 l/m 0,0 km/h (0 Bft) O-NO 67 2,8 C 5,3 C 0,0 km/h (0 Bft)
17.10.2018 04:56 5,3 C 4,4 C 12,3 C 4,9 C 84 % 1021,2 hPa 0,0 l/m 0,0 km/h (0 Bft) O-NO 67 2,8 C 5,3 C 0,0 km/h (0 Bft)
17.10.2018 04:54 5,3 C 4,4 C 12,3 C 5,0 C 84 % 1021,2 hPa 0,0 l/m 0,0 km/h (0 Bft) O-NO 67 2,8 C 5,3 C 0,0 km/h (0 Bft)
17.10.2018 04:52 5,3 C 4,5 C 12,3 C 5,0 C 84 % 1021,2 hPa 0,0 l/m 0,0 km/h (0 Bft) O-NO 67 2,8 C 5,3 C 0,0 km/h (0 Bft)
17.10.2018 04:50 5,3 C 4,6 C 12,3 C 5,0 C 84 % 1021,2 hPa 0,0 l/m 0,0 km/h (0 Bft) O-NO 67 2,8 C 5,3 C 0,0 km/h (0 Bft)
17.10.2018 04:48 5,3 C 4,4 C 12,3 C 5,0 C 84 % 1021,2 hPa 0,0 l/m 0,0 km/h (0 Bft) O-NO 67 2,8 C 5,3 C 0,0 km/h (0 Bft)
17.10.2018 04:46 5,3 C 4,4 C 12,3 C 5,1 C 84 % 1021,4 hPa 0,0 l/m 0,0 km/h (0 Bft) O-NO 67 2,8 C 5,3 C 0,0 km/h (0 Bft)
17.10.2018 04:44 5,3 C 4,5 C 12,3 C 5,1 C 84 % 1021,4 hPa 0,0 l/m 0,0 km/h (0 Bft) O-NO 67 2,8 C 5,3 C 0,0 km/h (0 Bft)
17.10.2018 04:42 5,3 C 4,5 C 12,3 C 5,1 C 84 % 1021,4 hPa 0,0 l/m 0,0 km/h (0 Bft) O-NO 67 2,8 C 5,3 C 0,0 km/h (0 Bft)
17.10.2018 04:40 5,3 C 4,4 C 12,4 C 5,1 C 84 % 1021,4 hPa 0,0 l/m 0,0 km/h (0 Bft) O-NO 67 2,8 C 5,3 C 0,0 km/h (0 Bft)
17.10.2018 04:38 5,4 C 4,4 C 12,4 C 5,1 C 84 % 1021,4 hPa 0,0 l/m 0,0 km/h (0 Bft) O-NO 67 2,9 C 5,4 C 0,0 km/h (0 Bft)
17.10.2018 04:36 5,4 C 4,5 C 12,4 C 5,1 C 84 % 1021,4 hPa 0,0 l/m 0,0 km/h (0 Bft) O 90 2,9 C 5,4 C 0,0 km/h (0 Bft)
17.10.2018 04:34 5,4 C 4,6 C 12,4 C 5,1 C 84 % 1021,4 hPa 0,0 l/m 0,0 km/h (0 Bft) S 180 2,9 C 5,4 C 0,0 km/h (0 Bft)
17.10.2018 04:32 5,4 C 4,8 C 12,4 C 5,1 C 84 % 1021,4 hPa 0,0 l/m 0,0 km/h (0 Bft) S 180 2,9 C 5,4 C 0,0 km/h (0 Bft)
17.10.2018 04:30 5,4 C 4,7 C 12,4 C 5,2 C 84 % 1021,4 hPa 0,0 l/m 0,0 km/h (0 Bft) S 180 2,9 C 5,4 C 0,0 km/h (0 Bft)
17.10.2018 04:28 5,5 C 4,6 C 12,4 C 5,2 C 84 % 1021,4 hPa 0,0 l/m 0,0 km/h (0 Bft) O 90 3,0 C 5,5 C 0,0 km/h (0 Bft)
17.10.2018 04:26 5,5 C 4,6 C 12,4 C 5,2 C 84 % 1021,4 hPa 0,0 l/m 0,0 km/h (0 Bft) O 90 3,0 C 5,5 C 0,0 km/h (0 Bft)
17.10.2018 04:24 5,5 C 4,7 C 12,4 C 5,3 C 84 % 1021,4 hPa 0,0 l/m 0,0 km/h (0 Bft) NO 45 3,0 C 5,5 C 0,0 km/h (0 Bft)
17.10.2018 04:22 5,5 C 4,8 C 12,4 C 5,3 C 84 % 1021,4 hPa 0,0 l/m 0,0 km/h (0 Bft) NO 45 3,0 C 5,5 C 0,0 km/h (0 Bft)
17.10.2018 04:20 5,6 C 4,7 C 12,4 C 5,3 C 84 % 1021,4 hPa 0,0 l/m 0,0 km/h (0 Bft) NO 45 3,1 C 5,6 C 0,0 km/h (0 Bft)
17.10.2018 04:18 5,6 C 4,8 C 12,4 C 5,3 C 84 % 1021,4 hPa 0,0 l/m 0,0 km/h (0 Bft) NO 45 3,1 C 5,6 C 0,0 km/h (0 Bft)
17.10.2018 04:16 5,6 C 4,7 C 12,4 C 5,3 C 84 % 1021,4 hPa 0,0 l/m 0,0 km/h (0 Bft) NO 45 3,1 C 5,6 C 0,0 km/h (0 Bft)
17.10.2018 04:14 5,6 C 4,7 C 12,4 C 5,4 C 84 % 1021,4 hPa 0,0 l/m 0,0 km/h (0 Bft) NO 45 3,1 C 5,6 C 0,0 km/h (0 Bft)
17.10.2018 04:12 5,6 C 4,8 C 12,4 C 5,4 C 84 % 1021,4 hPa 0,0 l/m 0,0 km/h (0 Bft) NO 45 3,1 C 5,6 C 0,0 km/h (0 Bft)
17.10.2018 04:10 5,6 C 4,7 C 12,4 C 5,4 C 84 % 1021,4 hPa 0,0 l/m 0,0 km/h (0 Bft) NO 45 3,1 C 5,6 C 0,0 km/h (0 Bft)
17.10.2018 04:08 5,6 C 4,8 C 12,4 C 5,5 C 84 % 1021,4 hPa 0,0 l/m 0,0 km/h (0 Bft) NO 45 3,1 C 5,6 C 0,0 km/h (0 Bft)
17.10.2018 04:06 5,6 C 4,8 C 12,4 C 5,5 C 84 % 1021,2 hPa 0,0 l/m 0,0 km/h (0 Bft) NO 45 3,1 C 5,6 C 0,0 km/h (0 Bft)
17.10.2018 04:04 5,7 C 4,8 C 12,5 C 5,5 C 84 % 1021,2 hPa 0,0 l/m 0,0 km/h (0 Bft) NO 45 3,2 C 5,7 C 0,0 km/h (0 Bft)
17.10.2018 04:02 5,7 C 4,8 C 12,5 C 5,5 C 84 % 1021,2 hPa 0,0 l/m 0,0 km/h (0 Bft) NO 45 3,2 C 5,7 C 0,0 km/h (0 Bft)
17.10.2018 04:00 5,7 C 4,7 C 12,5 C 5,5 C 84 % 1021,2 hPa 0,0 l/m 0,0 km/h (0 Bft) NO 45 3,2 C 5,7 C 0,0 km/h (0 Bft)
17.10.2018 03:58 5,7 C 4,8 C 12,5 C 5,6 C 84 % 1021,2 hPa 0,0 l/m 0,0 km/h (0 Bft) S-SO 157 3,2 C 5,7 C 0,0 km/h (0 Bft)
17.10.2018 03:56 5,7 C 4,6 C 12,5 C 5,6 C 84 % 1021,2 hPa 0,0 l/m 0,0 km/h (0 Bft) S-SO 157 3,2 C 5,7 C 0,0 km/h (0 Bft)
17.10.2018 03:54 5,7 C 4,5 C 12,5 C 5,6 C 84 % 1021,2 hPa 0,0 l/m 0,0 km/h (0 Bft) S-SO 157 3,2 C 5,7 C 0,0 km/h (0 Bft)
17.10.2018 03:52 5,7 C 4,8 C 12,5 C 5,6 C 84 % 1021,2 hPa 0,0 l/m 0,0 km/h (0 Bft) S-SO 157 3,2 C 5,7 C 0,0 km/h (0 Bft)
17.10.2018 03:50 5,8 C 5,0 C 12,5 C 5,7 C 84 % 1021,2 hPa 0,0 l/m 0,0 km/h (0 Bft) S-SO 157 3,3 C 5,8 C 0,0 km/h (0 Bft)
17.10.2018 03:48 5,8 C 5,3 C 12,5 C 5,7 C 84 % 1021,2 hPa 0,0 l/m 0,0 km/h (0 Bft) S-SO 157 3,3 C 5,8 C 0,0 km/h (0 Bft)
17.10.2018 03:46 5,8 C 5,3 C 12,5 C 5,7 C 84 % 1021,4 hPa 0,0 l/m 0,0 km/h (0 Bft) S-SO 157 3,3 C 5,8 C 0,0 km/h (0 Bft)
17.10.2018 03:44 5,8 C 5,3 C 12,5 C 5,7 C 84 % 1021,4 hPa 0,0 l/m 0,0 km/h (0 Bft) S-SO 157 3,3 C 5,8 C 0,0 km/h (0 Bft)
17.10.2018 03:42 5,9 C 5,3 C 12,5 C 5,7 C 84 % 1021,4 hPa 0,0 l/m 0,0 km/h (0 Bft) S-SO 157 3,4 C 5,9 C 0,0 km/h (0 Bft)
17.10.2018 03:40 5,9 C 5,3 C 12,5 C 5,7 C 84 % 1021,4 hPa 0,0 l/m 0,0 km/h (0 Bft) S-SW 202 3,4 C 5,9 C 0,0 km/h (0 Bft)
17.10.2018 03:38 5,9 C 5,3 C 12,5 C 5,8 C 84 % 1021,4 hPa 0,0 l/m 0,0 km/h (0 Bft) W-SW 247 3,4 C 5,9 C 0,0 km/h (0 Bft)
17.10.2018 03:36 5,9 C 5,4 C 12,5 C 5,8 C 84 % 1021,4 hPa 0,0 l/m 0,0 km/h (0 Bft) SW 225 3,4 C 5,9 C 0,0 km/h (0 Bft)
17.10.2018 03:34 5,9 C 5,2 C 12,5 C 5,8 C 84 % 1021,4 hPa 0,0 l/m 0,0 km/h (0 Bft) N-NO 22 3,4 C 5,9 C 0,0 km/h (0 Bft)
17.10.2018 03:32 5,9 C 5,2 C 12,5 C 5,8 C 84 % 1021,4 hPa 0,0 l/m 0,0 km/h (0 Bft) N-NO 22 3,4 C 5,9 C 0,0 km/h (0 Bft)
17.10.2018 03:30 6,0 C 5,2 C 12,5 C 5,9 C 83 % 1021,4 hPa 0,0 l/m 0,0 km/h (0 Bft) N-NO 22 3,3 C 6,0 C 0,0 km/h (0 Bft)
17.10.2018 03:28 6,0 C 5,3 C 12,5 C 5,9 C 83 % 1021,4 hPa 0,0 l/m 0,0 km/h (0 Bft) NW 315 3,3 C 6,0 C 0,0 km/h (0 Bft)
17.10.2018 03:26 6,0 C 5,3 C 12,6 C 5,9 C 83 % 1021,6 hPa 0,0 l/m 0,0 km/h (0 Bft) NW 315 3,3 C 6,0 C 0,0 km/h (0 Bft)
17.10.2018 03:24 6,0 C 5,3 C 12,6 C 6,0 C 83 % 1021,6 hPa 0,0 l/m 0,0 km/h (0 Bft) NW 315 3,3 C 6,0 C 0,0 km/h (0 Bft)
17.10.2018 03:22 6,0 C 5,2 C 12,6 C 5,9 C 83 % 1021,6 hPa 0,0 l/m 0,0 km/h (0 Bft) NW 315 3,3 C 6,0 C 0,0 km/h (0 Bft)
17.10.2018 03:20 6,0 C 5,3 C 12,6 C 6,0 C 83 % 1021,6 hPa 0,0 l/m 0,0 km/h (0 Bft) NO 45 3,3 C 6,0 C 0,0 km/h (0 Bft)
17.10.2018 03:18 6,0 C 5,4 C 12,6 C 6,0 C 83 % 1021,6 hPa 0,0 l/m 0,0 km/h (0 Bft) O 90 3,3 C 6,0 C 0,0 km/h (0 Bft)
17.10.2018 03:16 6,1 C 5,2 C 12,6 C 6,0 C 83 % 1021,6 hPa 0,0 l/m 0,0 km/h (0 Bft) O 90 3,4 C 6,1 C 0,0 km/h (0 Bft)
17.10.2018 03:14 6,1 C 5,1 C 12,6 C 6,1 C 83 % 1021,6 hPa 0,0 l/m 0,0 km/h (0 Bft) NO 45 3,4 C 6,1 C 0,0 km/h (0 Bft)
17.10.2018 03:12 6,1 C 5,1 C 12,6 C 6,1 C 83 % 1021,6 hPa 0,0 l/m 0,0 km/h (0 Bft) O 90 3,4 C 6,1 C 0,0 km/h (0 Bft)
17.10.2018 03:10 6,1 C 5,3 C 12,6 C 6,1 C 83 % 1021,6 hPa 0,0 l/m 0,0 km/h (0 Bft) NO 45 3,4 C 6,1 C 0,0 km/h (0 Bft)
17.10.2018 03:08 6,2 C 5,5 C 12,6 C 6,1 C 83 % 1021,6 hPa 0,0 l/m 0,0 km/h (0 Bft) W-SW 247 3,5 C 6,2 C 0,0 km/h (0 Bft)
17.10.2018 03:06 6,2 C 5,5 C 12,6 C 6,1 C 83 % 1021,5 hPa 0,0 l/m 0,0 km/h (0 Bft) W-SW 247 3,5 C 6,2 C 0,0 km/h (0 Bft)
17.10.2018 03:04 6,3 C 5,4 C 12,6 C 6,2 C 83 % 1021,5 hPa 0,0 l/m 0,0 km/h (0 Bft) W-SW 247 3,6 C 6,3 C 0,0 km/h (0 Bft)
17.10.2018 03:02 6,3 C 5,4 C 12,6 C 6,2 C 83 % 1021,5 hPa 0,0 l/m 0,0 km/h (0 Bft) W-SW 247 3,6 C 6,3 C 0,0 km/h (0 Bft)
17.10.2018 03:00 6,3 C 5,3 C 12,6 C 6,3 C 83 % 1021,5 hPa 0,0 l/m 0,0 km/h (0 Bft) W-SW 247 3,6 C 6,3 C 0,0 km/h (0 Bft)
17.10.2018 02:58 6,3 C 5,6 C 12,6 C 6,3 C 83 % 1021,5 hPa 0,0 l/m 0,0 km/h (0 Bft) W-SW 247 3,6 C 6,3 C 0,0 km/h (0 Bft)
17.10.2018 02:56 6,3 C 5,7 C 12,6 C 6,3 C 83 % 1021,5 hPa 0,0 l/m 0,0 km/h (0 Bft) W-SW 247 3,6 C 6,3 C 0,0 km/h (0 Bft)
17.10.2018 02:54 6,4 C 5,5 C 12,6 C 6,3 C 83 % 1021,5 hPa 0,0 l/m 0,0 km/h (0 Bft) W-SW 247 3,7 C 6,4 C 0,0 km/h (0 Bft)
17.10.2018 02:52 6,4 C 5,5 C 12,7 C 6,3 C 83 % 1021,5 hPa 0,0 l/m 0,0 km/h (0 Bft) W-SW 247 3,7 C 6,4 C 0,0 km/h (0 Bft)
17.10.2018 02:50 6,4 C 5,5 C 12,7 C 6,3 C 83 % 1021,5 hPa 0,0 l/m 0,0 km/h (0 Bft) W-SW 247 3,7 C 6,4 C 0,0 km/h (0 Bft)
17.10.2018 02:48 6,4 C 5,9 C 12,7 C 6,3 C 83 % 1021,5 hPa 0,0 l/m 0,0 km/h (0 Bft) W-SW 247 3,7 C 6,4 C 0,0 km/h (0 Bft)
17.10.2018 02:46 6,4 C 5,9 C 12,7 C 6,3 C 83 % 1021,6 hPa 0,0 l/m 0,0 km/h (0 Bft) W-SW 247 3,7 C 6,4 C 0,0 km/h (0 Bft)
17.10.2018 02:44 6,4 C 5,8 C 12,7 C 6,4 C 83 % 1021,6 hPa 0,0 l/m 0,0 km/h (0 Bft) W-SW 247 3,7 C 6,4 C 0,0 km/h (0 Bft)
17.10.2018 02:42 6,4 C 5,8 C 12,7 C 6,4 C 83 % 1021,6 hPa 0,0 l/m 0,0 km/h (0 Bft) W-SW 247 3,7 C 6,4 C 0,0 km/h (0 Bft)
17.10.2018 02:40 6,5 C 5,8 C 12,7 C 6,4 C 83 % 1021,6 hPa 0,0 l/m 0,0 km/h (0 Bft) W-NW 292 3,8 C 6,5 C 0,0 km/h (0 Bft)
17.10.2018 02:39 6,5 C 5,8 C 12,7 C 6,4 C 83 % 1021,6 hPa 0,0 l/m 0,0 km/h (0 Bft) W-NW 292 3,8 C 6,5 C 0,0 km/h (0 Bft)
17.10.2018 02:36 6,5 C 5,8 C 12,7 C 6,5 C 83 % 1021,6 hPa 0,0 l/m 0,0 km/h (0 Bft) SO 135 3,8 C 6,5 C 0,0 km/h (0 Bft)
17.10.2018 02:34 6,5 C 5,9 C 12,7 C 6,5 C 83 % 1021,6 hPa 0,0 l/m 0,0 km/h (0 Bft) SO 135 3,8 C 6,5 C 0,0 km/h (0 Bft)
17.10.2018 02:32 6,5 C 5,7 C 12,7 C 6,5 C 83 % 1021,6 hPa 0,0 l/m 0,2 km/h (0 Bft) SO 135 3,8 C 6,5 C 0,0 km/h (0 Bft)
17.10.2018 02:30 6,5 C 5,4 C 12,7 C 6,5 C 83 % 1021,6 hPa 0,0 l/m 0,3 km/h (0 Bft) SO 135 3,8 C 6,5 C 0,0 km/h (0 Bft)
17.10.2018 02:28 6,5 C 5,9 C 12,7 C 6,5 C 83 % 1021,6 hPa 0,0 l/m 0,6 km/h (0 Bft) SO 135 3,8 C 6,5 C 0,0 km/h (0 Bft)
17.10.2018 02:26 6,5 C 5,9 C 12,7 C 6,6 C 83 % 1021,4 hPa 0,0 l/m 0,6 km/h (0 Bft) SO 135 3,8 C 6,5 C 3,1 km/h (1 Bft)
17.10.2018 02:24 6,5 C 5,7 C 12,7 C 6,6 C 83 % 1021,4 hPa 0,0 l/m 0,8 km/h (0 Bft) S-SW 202 3,8 C 6,5 C 2,5 km/h (1 Bft)
17.10.2018 02:22 6,6 C 6,0 C 12,7 C 6,6 C 83 % 1021,4 hPa 0,0 l/m 0,8 km/h (0 Bft) S 180 3,9 C 6,6 C 2,5 km/h (1 Bft)
17.10.2018 02:20 6,6 C 5,8 C 12,7 C 6,6 C 83 % 1021,4 hPa 0,0 l/m 0,6 km/h (0 Bft) W-NW 292 3,9 C 6,6 C 2,9 km/h (1 Bft)
17.10.2018 02:18 6,6 C 5,8 C 12,7 C 6,6 C 83 % 1021,4 hPa 0,0 l/m 0,6 km/h (0 Bft) S-SO 157 3,9 C 6,6 C 2,9 km/h (1 Bft)
17.10.2018 02:16 6,6 C 5,8 C 12,7 C 6,6 C 83 % 1021,4 hPa 0,0 l/m 0,3 km/h (0 Bft) NW 315 3,9 C 6,6 C 2,9 km/h (1 Bft)
17.10.2018 02:14 6,6 C 5,4 C 12,7 C 6,6 C 83 % 1021,4 hPa 0,0 l/m 0,2 km/h (0 Bft) O 90 3,9 C 6,6 C 0,0 km/h (0 Bft)
17.10.2018 02:12 6,6 C 5,7 C 12,7 C 6,6 C 83 % 1021,4 hPa 0,0 l/m 0,0 km/h (0 Bft) O 90 3,9 C 6,6 C 0,0 km/h (0 Bft)
17.10.2018 02:10 6,6 C 5,8 C 12,7 C 6,6 C 83 % 1021,4 hPa 0,0 l/m 0,0 km/h (0 Bft) O 90 3,9 C 6,6 C 0,0 km/h (0 Bft)
17.10.2018 02:08 6,8 C 5,8 C 12,8 C 6,7 C 83 % 1021,4 hPa 0,0 l/m 0,0 km/h (0 Bft) O-SO 112 4,1 C 6,8 C 0,0 km/h (0 Bft)
17.10.2018 02:06 6,8 C 5,8 C 12,8 C 6,7 C 83 % 1021,6 hPa 0,0 l/m 0,0 km/h (0 Bft) O-SO 112 4,1 C 6,8 C 0,0 km/h (0 Bft)
17.10.2018 02:04 6,8 C 6,0 C 12,8 C 6,7 C 83 % 1021,6 hPa 0,0 l/m 0,0 km/h (0 Bft) O-SO 112 4,1 C 6,8 C 0,0 km/h (0 Bft)
17.10.2018 02:02 6,8 C 6,0 C 12,8 C 6,7 C 83 % 1021,6 hPa 0,0 l/m 0,0 km/h (0 Bft) O 90 4,1 C 6,8 C 0,0 km/h (0 Bft)
17.10.2018 02:00 6,7 C 5,8 C 12,8 C 6,8 C 83 % 1021,6 hPa 0,0 l/m 0,0 km/h (0 Bft) O 90 4,0 C 6,7 C 0,0 km/h (0 Bft)
17.10.2018 01:58 6,9 C 5,9 C 12,8 C 6,8 C 83 % 1021,6 hPa 0,0 l/m 0,0 km/h (0 Bft) O 90 4,2 C 6,9 C 0,0 km/h (0 Bft)
17.10.2018 01:56 6,9 C 6,2 C 12,8 C 6,8 C 83 % 1021,6 hPa 0,0 l/m 0,0 km/h (0 Bft) O-SO 112 4,2 C 6,9 C 0,0 km/h (0 Bft)
17.10.2018 01:54 6,9 C 6,2 C 12,8 C 6,8 C 83 % 1021,6 hPa 0,0 l/m 0,0 km/h (0 Bft) O-SO 112 4,2 C 6,9 C 0,0 km/h (0 Bft)
17.10.2018 01:52 6,9 C 6,2 C 12,8 C 6,9 C 83 % 1021,6 hPa 0,0 l/m 0,0 km/h (0 Bft) O-SO 112 4,2 C 6,9 C 0,0 km/h (0 Bft)
17.10.2018 01:50 7,0 C 6,0 C 12,8 C 6,9 C 83 % 1021,6 hPa 0,0 l/m 0,0 km/h (0 Bft) O 90 4,3 C 7,0 C 0,0 km/h (0 Bft)
17.10.2018 01:48 6,9 C 5,9 C 12,8 C 6,9 C 83 % 1021,6 hPa 0,0 l/m 0,0 km/h (0 Bft) O 90 4,2 C 6,9 C 0,0 km/h (0 Bft)
17.10.2018 01:46 6,9 C 5,9 C 12,8 C 7,0 C 83 % 1021,5 hPa 0,0 l/m 0,0 km/h (0 Bft) O 90 4,2 C 6,9 C 0,0 km/h (0 Bft)
17.10.2018 01:44 7,0 C 5,9 C 12,8 C 7,0 C 83 % 1021,5 hPa 0,0 l/m 0,0 km/h (0 Bft) O 90 4,3 C 7,0 C 0,0 km/h (0 Bft)
17.10.2018 01:42 7,0 C 6,0 C 12,8 C 7,1 C 83 % 1021,5 hPa 0,0 l/m 0,0 km/h (0 Bft) O 90 4,3 C 7,0 C 0,0 km/h (0 Bft)
17.10.2018 01:40 7,0 C 5,9 C 12,8 C 7,1 C 83 % 1021,5 hPa 0,0 l/m 0,0 km/h (0 Bft) O 90 4,3 C 7,0 C 0,0 km/h (0 Bft)
17.10.2018 01:38 7,2 C 5,8 C 12,8 C 7,1 C 83 % 1021,5 hPa 0,0 l/m 0,0 km/h (0 Bft) SO 135 4,5 C 7,2 C 0,0 km/h (0 Bft)
17.10.2018 01:36 7,2 C 5,8 C 12,8 C 7,1 C 83 % 1021,5 hPa 0,0 l/m 0,0 km/h (0 Bft) O-SO 112 4,5 C 7,2 C 0,0 km/h (0 Bft)
17.10.2018 01:34 7,2 C 6,2 C 12,8 C 7,1 C 83 % 1021,5 hPa 0,0 l/m 0,0 km/h (0 Bft) O 90 4,5 C 7,2 C 0,0 km/h (0 Bft)
17.10.2018 01:32 7,2 C 6,3 C 12,8 C 7,1 C 83 % 1021,5 hPa 0,0 l/m 0,0 km/h (0 Bft) S 180 4,5 C 7,2 C 0,0 km/h (0 Bft)
17.10.2018 01:30 7,3 C 6,3 C 12,8 C 7,1 C 83 % 1021,5 hPa 0,0 l/m 0,0 km/h (0 Bft) S 180 4,6 C 7,3 C 0,0 km/h (0 Bft)
17.10.2018 01:28 7,3 C 6,2 C 12,9 C 7,2 C 83 % 1021,5 hPa 0,0 l/m 0,0 km/h (0 Bft) S 180 4,6 C 7,3 C 0,0 km/h (0 Bft)
17.10.2018 01:26 7,3 C 6,2 C 12,9 C 7,2 C 83 % 1021,6 hPa 0,0 l/m 0,0 km/h (0 Bft) S 180 4,6 C 7,3 C 0,0 km/h (0 Bft)
17.10.2018 01:24 7,3 C 6,5 C 12,9 C 7,2 C 83 % 1021,6 hPa 0,0 l/m 0,0 km/h (0 Bft) S 180 4,6 C 7,3 C 0,0 km/h (0 Bft)
17.10.2018 01:22 7,3 C 6,5 C 12,9 C 7,3 C 83 % 1021,6 hPa 0,0 l/m 0,0 km/h (0 Bft) S 180 4,6 C 7,3 C 0,0 km/h (0 Bft)
17.10.2018 01:20 7,4 C 6,4 C 12,9 C 7,3 C 83 % 1021,6 hPa 0,0 l/m 0,0 km/h (0 Bft) S 180 4,7 C 7,4 C 0,0 km/h (0 Bft)
17.10.2018 01:18 7,4 C 6,3 C 12,9 C 7,4 C 83 % 1021,6 hPa 0,0 l/m 0,0 km/h (0 Bft) S 180 4,7 C 7,4 C 0,0 km/h (0 Bft)
17.10.2018 01:16 7,4 C 6,7 C 12,9 C 7,4 C 83 % 1021,6 hPa 0,0 l/m 0,0 km/h (0 Bft) S 180 4,7 C 7,4 C 0,0 km/h (0 Bft)
17.10.2018 01:14 7,4 C 6,6 C 12,9 C 7,4 C 83 % 1021,6 hPa 0,0 l/m 0,0 km/h (0 Bft) S 180 4,7 C 7,4 C 0,0 km/h (0 Bft)
17.10.2018 01:12 7,5 C 6,6 C 12,9 C 7,5 C 83 % 1021,6 hPa 0,0 l/m 0,0 km/h (0 Bft) S 180 4,8 C 7,5 C 0,0 km/h (0 Bft)
17.10.2018 01:10 7,5 C 6,6 C 12,9 C 7,5 C 83 % 1021,6 hPa 0,0 l/m 0,0 km/h (0 Bft) S 180 4,8 C 7,5 C 0,0 km/h (0 Bft)
17.10.2018 01:08 7,6 C 6,6 C 12,9 C 7,5 C 83 % 1021,6 hPa 0,0 l/m 0,0 km/h (0 Bft) S 180 4,9 C 7,6 C 0,0 km/h (0 Bft)
17.10.2018 01:06 7,6 C 6,6 C 12,9 C 7,5 C 83 % 1021,5 hPa 0,0 l/m 0,0 km/h (0 Bft) S 180 4,9 C 7,6 C 0,0 km/h (0 Bft)
17.10.2018 01:04 7,6 C 6,7 C 12,9 C 7,5 C 83 % 1021,5 hPa 0,0 l/m 0,0 km/h (0 Bft) S 180 4,9 C 7,6 C 0,0 km/h (0 Bft)
17.10.2018 01:02 7,7 C 6,7 C 12,9 C 7,7 C 83 % 1021,5 hPa 0,0 l/m 0,0 km/h (0 Bft) S 180 5,0 C 7,7 C 0,0 km/h (0 Bft)
17.10.2018 01:00 7,7 C 6,6 C 12,9 C 7,7 C 83 % 1021,5 hPa 0,0 l/m 0,0 km/h (0 Bft) S 180 5,0 C 7,7 C 0,0 km/h (0 Bft)
17.10.2018 00:58 7,7 C 6,7 C 12,9 C 7,7 C 83 % 1021,5 hPa 0,0 l/m 0,0 km/h (0 Bft) S 180 5,0 C 7,7 C 0,0 km/h (0 Bft)
17.10.2018 00:56 7,7 C 6,7 C 12,9 C 7,7 C 83 % 1021,5 hPa 0,0 l/m 0,0 km/h (0 Bft) S 180 5,0 C 7,7 C 0,0 km/h (0 Bft)
17.10.2018 00:54 7,7 C 6,7 C 12,9 C 7,8 C 83 % 1021,5 hPa 0,0 l/m 0,0 km/h (0 Bft) S 180 5,0 C 7,7 C 0,0 km/h (0 Bft)
17.10.2018 00:52 7,8 C 6,5 C 13,0 C 7,8 C 83 % 1021,5 hPa 0,0 l/m 0,0 km/h (0 Bft) S 180 5,1 C 7,8 C 0,0 km/h (0 Bft)
17.10.2018 00:50 7,8 C 6,5 C 13,0 C 7,9 C 83 % 1021,5 hPa 0,0 l/m 0,0 km/h (0 Bft) S 180 5,1 C 7,8 C 0,0 km/h (0 Bft)
17.10.2018 00:48 7,8 C 6,3 C 13,0 C 7,9 C 83 % 1021,5 hPa 0,0 l/m 0,0 km/h (0 Bft) S 180 5,1 C 7,8 C 0,0 km/h (0 Bft)
17.10.2018 00:46 7,8 C 6,3 C 13,0 C 7,9 C 83 % 1021,6 hPa 0,0 l/m 0,0 km/h (0 Bft) S 180 5,1 C 7,8 C 0,0 km/h (0 Bft)
17.10.2018 00:44 7,8 C 6,3 C 13,0 C 7,9 C 83 % 1021,6 hPa 0,0 l/m 0,0 km/h (0 Bft) S 180 5,1 C 7,8 C 0,0 km/h (0 Bft)
17.10.2018 00:42 7,9 C 6,5 C 12,9 C 7,9 C 83 % 1021,6 hPa 0,0 l/m 0,0 km/h (0 Bft) S 180 5,2 C 7,9 C 0,0 km/h (0 Bft)
17.10.2018 00:40 7,9 C 6,6 C 12,9 C 8,0 C 83 % 1021,6 hPa 0,0 l/m 0,0 km/h (0 Bft) S 180 5,2 C 7,9 C 0,0 km/h (0 Bft)
17.10.2018 00:38 7,9 C 6,9 C 12,9 C 8,0 C 83 % 1021,6 hPa 0,0 l/m 0,0 km/h (0 Bft) S 180 5,2 C 7,9 C 0,0 km/h (0 Bft)
17.10.2018 00:36 8,0 C 6,9 C 12,9 C 8,0 C 82 % 1021,6 hPa 0,0 l/m 0,0 km/h (0 Bft) S-SW 202 5,1 C 8,0 C 0,0 km/h (0 Bft)
17.10.2018 00:34 8,0 C 7,0 C 12,9 C 8,1 C 82 % 1021,6 hPa 0,0 l/m 0,0 km/h (0 Bft) S-SW 202 5,1 C 8,0 C 0,0 km/h (0 Bft)
17.10.2018 00:32 8,0 C 7,1 C 12,9 C 8,1 C 82 % 1021,6 hPa 0,0 l/m 0,0 km/h (0 Bft) S-SW 202 5,1 C 8,0 C 0,0 km/h (0 Bft)
17.10.2018 00:30 8,1 C 7,0 C 12,9 C 8,1 C 82 % 1021,6 hPa 0,0 l/m 0,0 km/h (0 Bft) S-SW 202 5,2 C 8,1 C 0,0 km/h (0 Bft)
17.10.2018 00:28 8,2 C 7,1 C 12,9 C 8,2 C 82 % 1021,6 hPa 0,0 l/m 0,0 km/h (0 Bft) S 180 5,3 C 8,2 C 0,0 km/h (0 Bft)
17.10.2018 00:26 8,2 C 7,1 C 12,9 C 8,2 C 82 % 1021,6 hPa 0,0 l/m 0,0 km/h (0 Bft) S 180 5,3 C 8,2 C 0,0 km/h (0 Bft)
17.10.2018 00:24 8,2 C 7,1 C 12,9 C 8,2 C 82 % 1021,6 hPa 0,0 l/m 0,0 km/h (0 Bft) N 360 5,3 C 8,2 C 0,0 km/h (0 Bft)
17.10.2018 00:22 8,2 C 7,2 C 12,9 C 8,3 C 82 % 1021,6 hPa 0,0 l/m 0,0 km/h (0 Bft) N 360 5,3 C 8,2 C 0,0 km/h (0 Bft)
17.10.2018 00:20 8,2 C 7,2 C 12,9 C 8,3 C 82 % 1021,6 hPa 0,0 l/m 0,0 km/h (0 Bft) N-NO 22 5,3 C 8,2 C 0,0 km/h (0 Bft)
17.10.2018 00:18 8,2 C 7,2 C 12,9 C 8,3 C 82 % 1021,6 hPa 0,0 l/m 0,0 km/h (0 Bft) N 360 5,3 C 8,2 C 0,0 km/h (0 Bft)
17.10.2018 00:16 8,2 C 7,2 C 13,0 C 8,4 C 82 % 1021,6 hPa 0,0 l/m 0,0 km/h (0 Bft) N 360 5,3 C 8,2 C 0,0 km/h (0 Bft)
17.10.2018 00:14 8,3 C 7,2 C 12,9 C 8,4 C 82 % 1021,6 hPa 0,0 l/m 0,0 km/h (0 Bft) N 360 5,4 C 8,3 C 0,0 km/h (0 Bft)
17.10.2018 00:12 8,3 C 7,2 C 12,9 C 8,4 C 82 % 1021,6 hPa 0,0 l/m 0,0 km/h (0 Bft) N 360 5,4 C 8,3 C 0,0 km/h (0 Bft)
17.10.2018 00:10 8,3 C 7,3 C 13,0 C 8,5 C 82 % 1021,6 hPa 0,0 l/m 0,0 km/h (0 Bft) N 360 5,4 C 8,3 C 0,0 km/h (0 Bft)
17.10.2018 00:08 8,3 C 7,1 C 13,0 C 8,5 C 82 % 1021,6 hPa 0,0 l/m 0,0 km/h (0 Bft) N-NO 22 5,4 C 8,3 C 0,0 km/h (0 Bft)
17.10.2018 00:06 8,3 C 7,1 C 13,0 C 8,5 C 82 % 1021,6 hPa 0,0 l/m 0,0 km/h (0 Bft) N-NO 22 5,4 C 8,3 C 0,0 km/h (0 Bft)
17.10.2018 00:04 8,4 C 7,0 C 13,0 C 8,6 C 82 % 1021,6 hPa 0,0 l/m 0,0 km/h (0 Bft) NO 45 5,5 C 8,4 C 0,0 km/h (0 Bft)
17.10.2018 00:01 8,4 C 7,0 C 13,0 C 8,6 C 82 % 1021,6 hPa 0,0 l/m 0,0 km/h (0 Bft) NO 45 5,5 C 8,4 C 0,0 km/h (0 Bft)
_ Min-Zeit 07:30 07:12 09:34 08:02 12:30 16:28 - 00:01 - - 07:30 07:30 00:01
Minimum _ 4,2 C 3,7 C 11,7 C 3,8 C 60 % 1019,8 hPa - 0,0 km/h (0 Bft) - - 1,9 C 4,2 C 0,0 km/h (0 Bft)
_ Max-Zeit 15:40 12:02 16:10 14:42 09:30 08:08 00:01 14:06 - - 16:50 16:04 14:46
Maximum _ 18,5 C 24,8 C 13,2 C 20,7 C 87 % 1022,2 hPa 0,0 l/m 13,4 km/h
N-NO (3 Bft)
- - 11,5 C 18,3 C 29,7 km/h
O (5 Bft)
Durchschnitt _ 10,2 C 12,0 C 12,5 C 10,8 C 77 % 1021,3 hPa #0,0 l/m 2,7 km/h (1 Bft) O - 6,1 C 9,8 C 4,9 km/h (1 Bft)